Wetterdaten: Freitag, 23.09.2016
Datum Zeit Temp. A. Feuchte A. Luftdruck Regen Wind Richtung Richtung Sonnenschein ET UV Solar Taupunkt Windchill Windben Empfang
23.09.2016 00:00 7,8 C 93 % 1022,0 hPa 0,0 l/m 0,3 km/h (0 Bft) O-SO 107 0 min 0,000 mm 0,0 UV-I 0 W/m 6,7 C 7,8 C 1,6 km/h (1 Bft) 100,00 %
23.09.2016 00:02 7,8 C 94 % 1022,0 hPa 0,0 l/m 0,3 km/h (0 Bft) O-SO 107 0 min 0,000 mm 0,0 UV-I 0 W/m 6,9 C 7,8 C 1,6 km/h (1 Bft) 100,00 %
23.09.2016 00:04 7,8 C 94 % 1021,9 hPa 0,0 l/m 1,0 km/h (0 Bft) O-SO 107 0 min 0,000 mm 0,0 UV-I 0 W/m 6,9 C 7,8 C 3,2 km/h (1 Bft) 100,00 %
23.09.2016 00:06 7,8 C 94 % 1022,0 hPa 0,0 l/m 0,2 km/h (0 Bft) O-SO 107 0 min 0,000 mm 0,0 UV-I 0 W/m 6,9 C 7,8 C 1,6 km/h (1 Bft) 100,00 %
23.09.2016 00:08 7,8 C 93 % 1022,0 hPa 0,0 l/m 1,1 km/h (1 Bft) O-SO 107 0 min 0,000 mm 0,0 UV-I 0 W/m 6,7 C 7,8 C 1,6 km/h (1 Bft) 100,00 %
23.09.2016 00:10 7,8 C 93 % 1022,1 hPa 0,0 l/m 1,8 km/h (1 Bft) O-SO 107 0 min 0,000 mm 0,0 UV-I 0 W/m 6,7 C 7,8 C 3,2 km/h (1 Bft) 96,00 %
23.09.2016 00:12 7,8 C 93 % 1022,0 hPa 0,0 l/m 2,5 km/h (1 Bft) O-SO 107 0 min 0,000 mm 0,0 UV-I 0 W/m 6,7 C 7,8 C 3,2 km/h (1 Bft) 97,87 %
23.09.2016 00:14 7,8 C 93 % 1022,1 hPa 0,0 l/m 3,0 km/h (1 Bft) S-SO 153 0 min 0,000 mm 0,0 UV-I 0 W/m 6,7 C 7,8 C 4,8 km/h (1 Bft) 96,00 %
23.09.2016 00:16 7,7 C 93 % 1022,1 hPa 0,0 l/m 3,7 km/h (1 Bft) S 175 0 min 0,000 mm 0,0 UV-I 0 W/m 6,6 C 7,7 C 6,4 km/h (2 Bft) 95,74 %
23.09.2016 00:18 7,6 C 93 % 1022,1 hPa 0,0 l/m 2,4 km/h (1 Bft) S 175 0 min 0,000 mm 0,0 UV-I 0 W/m 6,5 C 7,6 C 3,2 km/h (1 Bft) 97,87 %
23.09.2016 00:20 7,5 C 93 % 1022,2 hPa 0,0 l/m 1,5 km/h (1 Bft) S 175 0 min 0,000 mm 0,0 UV-I 0 W/m 6,4 C 7,5 C 3,2 km/h (1 Bft) 97,87 %
23.09.2016 00:22 7,5 C 94 % 1022,2 hPa 0,0 l/m 1,7 km/h (1 Bft) S 175 0 min 0,000 mm 0,0 UV-I 0 W/m 6,6 C 7,5 C 4,8 km/h (1 Bft) 97,87 %
23.09.2016 00:24 7,5 C 94 % 1022,2 hPa 0,0 l/m 4,2 km/h (1 Bft) S 175 0 min 0,000 mm 0,0 UV-I 0 W/m 6,6 C 7,5 C 6,4 km/h (2 Bft) 96,00 %
23.09.2016 00:26 7,5 C 94 % 1022,2 hPa 0,0 l/m 2,0 km/h (1 Bft) S 175 0 min 0,000 mm 0,0 UV-I 0 W/m 6,6 C 7,5 C 3,2 km/h (1 Bft) 100,00 %
23.09.2016 00:28 7,6 C 94 % 1022,2 hPa 0,0 l/m 3,0 km/h (1 Bft) S 175 0 min 0,000 mm 0,0 UV-I 0 W/m 6,7 C 7,6 C 4,8 km/h (1 Bft) 95,74 %
23.09.2016 00:30 7,7 C 95 % 1022,2 hPa 0,0 l/m 0,8 km/h (0 Bft) S 175 0 min 0,000 mm 0,0 UV-I 0 W/m 7,0 C 7,7 C 3,2 km/h (1 Bft) 97,87 %
23.09.2016 00:32 7,8 C 95 % 1022,3 hPa 0,0 l/m 2,5 km/h (1 Bft) S 175 0 min 0,000 mm 0,0 UV-I 0 W/m 7,0 C 7,8 C 3,2 km/h (1 Bft) 98,11 %
23.09.2016 00:34 7,8 C 94 % 1022,3 hPa 0,0 l/m 1,2 km/h (1 Bft) S 175 0 min 0,000 mm 0,0 UV-I 0 W/m 6,9 C 7,8 C 3,2 km/h (1 Bft) 96,00 %
23.09.2016 00:36 7,8 C 94 % 1022,3 hPa 0,0 l/m 0,3 km/h (0 Bft) S 175 0 min 0,000 mm 0,0 UV-I 0 W/m 6,9 C 7,8 C 1,6 km/h (1 Bft) 94,74 %
23.09.2016 00:38 7,8 C 94 % 1022,2 hPa 0,0 l/m 1,0 km/h (0 Bft) S 175 0 min 0,000 mm 0,0 UV-I 0 W/m 6,9 C 7,8 C 1,6 km/h (1 Bft) 97,62 %
23.09.2016 00:40 7,8 C 94 % 1022,2 hPa 0,0 l/m 0,1 km/h (0 Bft) S 175 0 min 0,000 mm 0,0 UV-I 0 W/m 6,9 C 7,8 C 1,6 km/h (1 Bft) 98,11 %
23.09.2016 00:42 7,7 C 94 % 1022,2 hPa 0,0 l/m 0,8 km/h (0 Bft) S 175 0 min 0,000 mm 0,0 UV-I 0 W/m 6,8 C 7,7 C 3,2 km/h (1 Bft) 97,87 %
23.09.2016 00:44 7,6 C 94 % 1022,3 hPa 0,0 l/m 1,9 km/h (1 Bft) S 175 0 min 0,000 mm 0,0 UV-I 0 W/m 6,7 C 7,6 C 3,2 km/h (1 Bft) 98,00 %
23.09.2016 00:46 7,6 C 94 % 1022,3 hPa 0,0 l/m 1,6 km/h (1 Bft) S 175 0 min 0,000 mm 0,0 UV-I 0 W/m 6,7 C 7,6 C 1,6 km/h (1 Bft) 100,00 %
23.09.2016 00:48 7,7 C 94 % 1022,3 hPa 0,0 l/m 1,6 km/h (1 Bft) S 175 0 min 0,000 mm 0,0 UV-I 0 W/m 6,8 C 7,7 C 3,2 km/h (1 Bft) 100,00 %
23.09.2016 00:50 7,7 C 94 % 1022,2 hPa 0,0 l/m 1,2 km/h (1 Bft) S 175 0 min 0,000 mm 0,0 UV-I 0 W/m 6,8 C 7,7 C 1,6 km/h (1 Bft) 100,00 %
23.09.2016 00:52 7,7 C 94 % 1022,2 hPa 0,0 l/m 1,2 km/h (1 Bft) S 175 0 min 0,000 mm 0,0 UV-I 0 W/m 6,8 C 7,7 C 1,6 km/h (1 Bft) 98,39 %
23.09.2016 00:54 7,7 C 94 % 1022,3 hPa 0,0 l/m 0,9 km/h (0 Bft) S 175 0 min 0,000 mm 0,0 UV-I 0 W/m 6,8 C 7,7 C 1,6 km/h (1 Bft) 100,00 %
23.09.2016 00:56 7,7 C 94 % 1022,4 hPa 0,0 l/m 1,0 km/h (0 Bft) S 175 0 min 0,000 mm 0,0 UV-I 0 W/m 6,8 C 7,7 C 1,6 km/h (1 Bft) 100,00 %
23.09.2016 00:58 7,7 C 94 % 1022,3 hPa 0,0 l/m 1,9 km/h (1 Bft) S 175 0 min 0,000 mm 0,0 UV-I 0 W/m 6,8 C 7,7 C 3,2 km/h (1 Bft) 100,00 %
23.09.2016 01:00 7,7 C 94 % 1022,3 hPa 0,0 l/m 1,3 km/h (1 Bft) S 175 0 min 0,000 mm 0,0 UV-I 0 W/m 6,8 C 7,7 C 3,2 km/h (1 Bft) 100,00 %
23.09.2016 01:02 7,6 C 94 % 1022,3 hPa 0,0 l/m 0,6 km/h (0 Bft) S 175 0 min 0,000 mm 0,0 UV-I 0 W/m 6,7 C 7,6 C 1,6 km/h (1 Bft) 100,00 %
23.09.2016 01:04 7,5 C 94 % 1022,3 hPa 0,0 l/m 0,0 km/h (0 Bft) S 175 0 min 0,000 mm 0,0 UV-I 0 W/m 6,6 C 7,5 C 1,6 km/h (1 Bft) 100,00 %
23.09.2016 01:06 7,3 C 94 % 1022,3 hPa 0,0 l/m 1,6 km/h (1 Bft) S 175 0 min 0,000 mm 0,0 UV-I 0 W/m 6,4 C 7,3 C 3,2 km/h (1 Bft) 100,00 %
23.09.2016 01:08 7,3 C 94 % 1022,3 hPa 0,0 l/m 2,1 km/h (1 Bft) S 175 0 min 0,000 mm 0,0 UV-I 0 W/m 6,4 C 7,3 C 3,2 km/h (1 Bft) 100,00 %
23.09.2016 01:10 7,4 C 94 % 1022,4 hPa 0,0 l/m 0,6 km/h (0 Bft) S 175 0 min 0,000 mm 0,0 UV-I 0 W/m 6,5 C 7,4 C 1,6 km/h (1 Bft) 100,00 %
23.09.2016 01:12 7,4 C 94 % 1022,4 hPa 0,0 l/m 1,6 km/h (1 Bft) S 175 0 min 0,000 mm 0,0 UV-I 0 W/m 6,5 C 7,4 C 3,2 km/h (1 Bft) 95,74 %
23.09.2016 01:14 7,4 C 94 % 1022,3 hPa 0,0 l/m 0,9 km/h (0 Bft) S 175 0 min 0,000 mm 0,0 UV-I 0 W/m 6,5 C 7,4 C 1,6 km/h (1 Bft) 100,00 %
23.09.2016 01:16 7,5 C 95 % 1022,4 hPa 0,0 l/m 0,0 km/h (0 Bft) S 175 0 min 0,000 mm 0,0 UV-I 0 W/m 6,8 C 7,5 C 1,6 km/h (1 Bft) 100,00 %
23.09.2016 01:18 7,5 C 94 % 1022,4 hPa 0,0 l/m 0,0 km/h (0 Bft) S 175 0 min 0,000 mm 0,0 UV-I 0 W/m 6,6 C 7,5 C 0,0 km/h (0 Bft) 100,00 %
23.09.2016 01:20 7,4 C 94 % 1022,4 hPa 0,0 l/m 0,0 km/h (0 Bft) S 175 0 min 0,000 mm 0,0 UV-I 0 W/m 6,5 C 7,4 C 0,0 km/h (0 Bft) 97,22 %
23.09.2016 01:22 7,4 C 94 % 1022,4 hPa 0,0 l/m 0,0 km/h (0 Bft) S 175 0 min 0,000 mm 0,0 UV-I 0 W/m 6,5 C 7,4 C 0,0 km/h (0 Bft) 100,00 %
23.09.2016 01:24 7,4 C 94 % 1022,4 hPa 0,0 l/m 0,0 km/h (0 Bft) S 175 0 min 0,000 mm 0,0 UV-I 0 W/m 6,5 C 7,4 C 0,0 km/h (0 Bft) 100,00 %
23.09.2016 01:26 7,3 C 94 % 1022,4 hPa 0,0 l/m 0,0 km/h (0 Bft) S 175 0 min 0,000 mm 0,0 UV-I 0 W/m 6,4 C 7,3 C 0,0 km/h (0 Bft) 100,00 %
23.09.2016 01:28 7,4 C 95 % 1022,4 hPa 0,0 l/m 0,0 km/h (0 Bft) S 175 0 min 0,000 mm 0,0 UV-I 0 W/m 6,7 C 7,4 C 0,0 km/h (0 Bft) 100,00 %
23.09.2016 01:30 7,3 C 95 % 1022,4 hPa 0,0 l/m 0,0 km/h (0 Bft) S 175 0 min 0,000 mm 0,0 UV-I 0 W/m 6,6 C 7,3 C 0,0 km/h (0 Bft) 100,00 %
23.09.2016 01:32 7,3 C 95 % 1022,4 hPa 0,0 l/m 0,0 km/h (0 Bft) S 175 0 min 0,000 mm 0,0 UV-I 0 W/m 6,6 C 7,3 C 0,0 km/h (0 Bft) 98,00 %
23.09.2016 01:34 7,4 C 95 % 1022,4 hPa 0,0 l/m 0,0 km/h (0 Bft) S 175 0 min 0,000 mm 0,0 UV-I 0 W/m 6,7 C 7,4 C 0,0 km/h (0 Bft) 95,74 %
23.09.2016 01:36 7,4 C 95 % 1022,4 hPa 0,0 l/m 0,2 km/h (0 Bft) S 175 0 min 0,000 mm 0,0 UV-I 0 W/m 6,7 C 7,4 C 1,6 km/h (1 Bft) 97,37 %
23.09.2016 01:38 7,3 C 95 % 1022,4 hPa 0,0 l/m 0,2 km/h (0 Bft) S 175 0 min 0,000 mm 0,0 UV-I 0 W/m 6,6 C 7,3 C 1,6 km/h (1 Bft) 100,00 %
23.09.2016 01:40 7,3 C 95 % 1022,5 hPa 0,0 l/m 0,0 km/h (0 Bft) S 175 0 min 0,000 mm 0,0 UV-I 0 W/m 6,6 C 7,3 C 0,0 km/h (0 Bft) 100,00 %
23.09.2016 01:42 7,3 C 95 % 1022,5 hPa 0,0 l/m 0,0 km/h (0 Bft) S 175 0 min 0,000 mm 0,0 UV-I 0 W/m 6,6 C 7,3 C 0,0 km/h (0 Bft) 100,00 %
23.09.2016 01:44 7,3 C 95 % 1022,5 hPa 0,0 l/m 0,2 km/h (0 Bft) S 175 0 min 0,000 mm 0,0 UV-I 0 W/m 6,6 C 7,3 C 1,6 km/h (1 Bft) 100,00 %
23.09.2016 01:46 7,3 C 95 % 1022,5 hPa 0,0 l/m 0,0 km/h (0 Bft) S 175 0 min 0,000 mm 0,0 UV-I 0 W/m 6,6 C 7,3 C 0,0 km/h (0 Bft) 100,00 %
23.09.2016 01:48 7,2 C 95 % 1022,6 hPa 0,0 l/m 0,0 km/h (0 Bft) S 175 0 min 0,000 mm 0,0 UV-I 0 W/m 6,5 C 7,2 C 0,0 km/h (0 Bft) 100,00 %
23.09.2016 01:50 7,2 C 95 % 1022,6 hPa 0,0 l/m 0,0 km/h (0 Bft) S 175 0 min 0,000 mm 0,0 UV-I 0 W/m 6,5 C 7,2 C 0,0 km/h (0 Bft) 100,00 %
23.09.2016 01:52 7,2 C 95 % 1022,6 hPa 0,0 l/m 0,0 km/h (0 Bft) S 175 0 min 0,000 mm 0,0 UV-I 0 W/m 6,5 C 7,2 C 0,0 km/h (0 Bft) 100,00 %
23.09.2016 01:54 7,2 C 95 % 1022,6 hPa 0,0 l/m 0,3 km/h (0 Bft) S 175 0 min 0,000 mm 0,0 UV-I 0 W/m 6,5 C 7,2 C 1,6 km/h (1 Bft) 100,00 %
23.09.2016 01:56 7,2 C 95 % 1022,6 hPa 0,0 l/m 1,1 km/h (1 Bft) S 175 0 min 0,000 mm 0,0 UV-I 0 W/m 6,5 C 7,2 C 1,6 km/h (1 Bft) 100,00 %
23.09.2016 01:58 7,2 C 95 % 1022,7 hPa 0,0 l/m 0,8 km/h (0 Bft) S 175 0 min 0,000 mm 0,0 UV-I 0 W/m 6,5 C 7,2 C 1,6 km/h (1 Bft) 98,00 %
23.09.2016 02:00 7,2 C 95 % 1022,7 hPa 0,0 l/m 0,1 km/h (0 Bft) S 175 0 min 0,000 mm 0,0 UV-I 0 W/m 6,5 C 7,2 C 1,6 km/h (1 Bft) 100,00 %
23.09.2016 02:02 7,2 C 95 % 1022,7 hPa 0,0 l/m 0,0 km/h (0 Bft) S 175 0 min 0,000 mm 0,0 UV-I 0 W/m 6,5 C 7,2 C 0,0 km/h (0 Bft) 97,87 %
23.09.2016 02:04 7,2 C 95 % 1022,7 hPa 0,0 l/m 1,1 km/h (1 Bft) S 175 0 min 0,000 mm 0,0 UV-I 0 W/m 6,5 C 7,2 C 1,6 km/h (1 Bft) 100,00 %
23.09.2016 02:06 7,2 C 95 % 1022,6 hPa 0,0 l/m 0,2 km/h (0 Bft) S 175 0 min 0,000 mm 0,0 UV-I 0 W/m 6,5 C 7,2 C 1,6 km/h (1 Bft) 98,00 %
23.09.2016 02:08 7,2 C 95 % 1022,6 hPa 0,0 l/m 0,5 km/h (0 Bft) S 175 0 min 0,000 mm 0,0 UV-I 0 W/m 6,5 C 7,2 C 3,2 km/h (1 Bft) 95,74 %
23.09.2016 02:10 7,2 C 95 % 1022,6 hPa 0,0 l/m 1,5 km/h (1 Bft) S 175 0 min 0,000 mm 0,0 UV-I 0 W/m 6,5 C 7,2 C 3,2 km/h (1 Bft) 97,87 %
23.09.2016 02:12 7,2 C 95 % 1022,7 hPa 0,0 l/m 0,2 km/h (0 Bft) S 175 0 min 0,000 mm 0,0 UV-I 0 W/m 6,5 C 7,2 C 1,6 km/h (1 Bft) 97,87 %
23.09.2016 02:14 7,1 C 95 % 1022,7 hPa 0,0 l/m 0,0 km/h (0 Bft) S 175 0 min 0,000 mm 0,0 UV-I 0 W/m 6,4 C 7,1 C 0,0 km/h (0 Bft) 97,56 %
23.09.2016 02:16 7,1 C 95 % 1022,6 hPa 0,0 l/m 0,1 km/h (0 Bft) S 175 0 min 0,000 mm 0,0 UV-I 0 W/m 6,4 C 7,1 C 1,6 km/h (1 Bft) 98,00 %
23.09.2016 02:18 7,1 C 95 % 1022,6 hPa 0,0 l/m 1,2 km/h (1 Bft) S 175 0 min 0,000 mm 0,0 UV-I 0 W/m 6,4 C 7,1 C 1,6 km/h (1 Bft) 96,00 %
23.09.2016 02:20 7,2 C 95 % 1022,7 hPa 0,0 l/m 1,0 km/h (0 Bft) S 175 0 min 0,000 mm 0,0 UV-I 0 W/m 6,5 C 7,2 C 3,2 km/h (1 Bft) 97,37 %
23.09.2016 02:22 7,2 C 95 % 1022,6 hPa 0,0 l/m 0,8 km/h (0 Bft) S 175 0 min 0,000 mm 0,0 UV-I 0 W/m 6,5 C 7,2 C 1,6 km/h (1 Bft) 98,11 %
23.09.2016 02:24 7,2 C 95 % 1022,6 hPa 0,0 l/m 0,8 km/h (0 Bft) S 175 0 min 0,000 mm 0,0 UV-I 0 W/m 6,5 C 7,2 C 1,6 km/h (1 Bft) 98,00 %
23.09.2016 02:26 7,2 C 95 % 1022,6 hPa 0,0 l/m 1,4 km/h (1 Bft) S 175 0 min 0,000 mm 0,0 UV-I 0 W/m 6,5 C 7,2 C 3,2 km/h (1 Bft) 97,56 %
23.09.2016 02:28 7,1 C 95 % 1022,6 hPa 0,0 l/m 1,0 km/h (0 Bft) S 175 0 min 0,000 mm 0,0 UV-I 0 W/m 6,4 C 7,1 C 1,6 km/h (1 Bft) 96,23 %
23.09.2016 02:30 7,1 C 95 % 1022,6 hPa 0,0 l/m 0,6 km/h (0 Bft) S 175 0 min 0,000 mm 0,0 UV-I 0 W/m 6,4 C 7,1 C 1,6 km/h (1 Bft) 97,37 %
23.09.2016 02:32 7,0 C 95 % 1022,6 hPa 0,0 l/m 0,1 km/h (0 Bft) S 175 0 min 0,000 mm 0,0 UV-I 0 W/m 6,3 C 7,0 C 1,6 km/h (1 Bft) 98,00 %
23.09.2016 02:34 7,0 C 95 % 1022,5 hPa 0,0 l/m 0,1 km/h (0 Bft) S 175 0 min 0,000 mm 0,0 UV-I 0 W/m 6,3 C 7,0 C 1,6 km/h (1 Bft) 98,00 %
23.09.2016 02:36 6,9 C 95 % 1022,5 hPa 0,0 l/m 0,3 km/h (0 Bft) S 175 0 min 0,000 mm 0,0 UV-I 0 W/m 6,2 C 6,9 C 1,6 km/h (1 Bft) 96,00 %
23.09.2016 02:38 7,0 C 95 % 1022,5 hPa 0,0 l/m 0,7 km/h (0 Bft) S 175 0 min 0,000 mm 0,0 UV-I 0 W/m 6,3 C 7,0 C 1,6 km/h (1 Bft) 97,22 %
23.09.2016 02:40 7,1 C 95 % 1022,5 hPa 0,0 l/m 1,1 km/h (1 Bft) S 175 0 min 0,000 mm 0,0 UV-I 0 W/m 6,4 C 7,1 C 1,6 km/h (1 Bft) 98,00 %
23.09.2016 02:42 7,0 C 95 % 1022,4 hPa 0,0 l/m 0,5 km/h (0 Bft) S 175 0 min 0,000 mm 0,0 UV-I 0 W/m 6,3 C 7,0 C 1,6 km/h (1 Bft) 98,00 %
23.09.2016 02:44 7,1 C 95 % 1022,4 hPa 0,0 l/m 0,5 km/h (0 Bft) S 175 0 min 0,000 mm 0,0 UV-I 0 W/m 6,4 C 7,1 C 1,6 km/h (1 Bft) 97,87 %
23.09.2016 02:46 7,1 C 95 % 1022,4 hPa 0,0 l/m 1,3 km/h (1 Bft) S 175 0 min 0,000 mm 0,0 UV-I 0 W/m 6,4 C 7,1 C 3,2 km/h (1 Bft) 100,00 %
23.09.2016 02:48 7,1 C 95 % 1022,4 hPa 0,0 l/m 3,8 km/h (1 Bft) S 175 0 min 0,000 mm 0,0 UV-I 0 W/m 6,4 C 7,1 C 4,8 km/h (1 Bft) 100,00 %
23.09.2016 02:50 7,1 C 95 % 1022,4 hPa 0,0 l/m 3,4 km/h (1 Bft) S 175 0 min 0,000 mm 0,0 UV-I 0 W/m 6,4 C 7,1 C 4,8 km/h (1 Bft) 98,21 %
23.09.2016 02:52 7,1 C 95 % 1022,5 hPa 0,0 l/m 2,8 km/h (1 Bft) S 175 0 min 0,000 mm 0,0 UV-I 0 W/m 6,4 C 7,1 C 4,8 km/h (1 Bft) 100,00 %
23.09.2016 02:54 7,1 C 95 % 1022,4 hPa 0,0 l/m 3,0 km/h (1 Bft) S 175 0 min 0,000 mm 0,0 UV-I 0 W/m 6,4 C 7,1 C 4,8 km/h (1 Bft) 100,00 %
23.09.2016 02:56 7,1 C 95 % 1022,4 hPa 0,0 l/m 2,1 km/h (1 Bft) S 175 0 min 0,000 mm 0,0 UV-I 0 W/m 6,4 C 7,1 C 3,2 km/h (1 Bft) 100,00 %
23.09.2016 02:58 7,1 C 95 % 1022,4 hPa 0,0 l/m 1,1 km/h (1 Bft) S 175 0 min 0,000 mm 0,0 UV-I 0 W/m 6,4 C 7,1 C 3,2 km/h (1 Bft) 100,00 %
23.09.2016 03:00 7,2 C 95 % 1022,4 hPa 0,0 l/m 1,6 km/h (1 Bft) S 175 0 min 0,000 mm 0,0 UV-I 0 W/m 6,5 C 7,2 C 3,2 km/h (1 Bft) 100,00 %
23.09.2016 03:02 7,2 C 95 % 1022,3 hPa 0,0 l/m 2,1 km/h (1 Bft) S 175 0 min 0,000 mm 0,0 UV-I 0 W/m 6,5 C 7,2 C 3,2 km/h (1 Bft) 100,00 %
23.09.2016 03:04 7,2 C 95 % 1022,4 hPa 0,0 l/m 3,7 km/h (1 Bft) S 175 0 min 0,000 mm 0,0 UV-I 0 W/m 6,5 C 7,2 C 4,8 km/h (1 Bft) 100,00 %
23.09.2016 03:06 7,2 C 95 % 1022,4 hPa 0,0 l/m 2,9 km/h (1 Bft) S 175 0 min 0,000 mm 0,0 UV-I 0 W/m 6,5 C 7,2 C 4,8 km/h (1 Bft) 100,00 %
23.09.2016 03:08 7,2 C 95 % 1022,4 hPa 0,0 l/m 2,4 km/h (1 Bft) S 175 0 min 0,000 mm 0,0 UV-I 0 W/m 6,5 C 7,2 C 3,2 km/h (1 Bft) 100,00 %
23.09.2016 03:10 7,2 C 95 % 1022,3 hPa 0,0 l/m 1,3 km/h (1 Bft) S 175 0 min 0,000 mm 0,0 UV-I 0 W/m 6,5 C 7,2 C 3,2 km/h (1 Bft) 100,00 %
23.09.2016 03:12 7,2 C 95 % 1022,3 hPa 0,0 l/m 1,1 km/h (1 Bft) S 175 0 min 0,000 mm 0,0 UV-I 0 W/m 6,5 C 7,2 C 3,2 km/h (1 Bft) 100,00 %
23.09.2016 03:14 7,2 C 95 % 1022,3 hPa 0,0 l/m 2,3 km/h (1 Bft) S 175 0 min 0,000 mm 0,0 UV-I 0 W/m 6,5 C 7,2 C 3,2 km/h (1 Bft) 100,00 %
23.09.2016 03:16 7,2 C 95 % 1022,3 hPa 0,0 l/m 2,1 km/h (1 Bft) S 175 0 min 0,000 mm 0,0 UV-I 0 W/m 6,5 C 7,2 C 3,2 km/h (1 Bft) 96,15 %
23.09.2016 03:18 7,2 C 95 % 1022,3 hPa 0,0 l/m 3,4 km/h (1 Bft) S 175 0 min 0,000 mm 0,0 UV-I 0 W/m 6,5 C 7,2 C 4,8 km/h (1 Bft) 95,24 %
23.09.2016 03:20 7,2 C 95 % 1022,4 hPa 0,0 l/m 2,9 km/h (1 Bft) S 175 0 min 0,000 mm 0,0 UV-I 0 W/m 6,5 C 7,2 C 4,8 km/h (1 Bft) 100,00 %
23.09.2016 03:22 7,2 C 95 % 1022,3 hPa 0,0 l/m 1,5 km/h (1 Bft) S 175 0 min 0,000 mm 0,0 UV-I 0 W/m 6,5 C 7,2 C 3,2 km/h (1 Bft) 100,00 %
23.09.2016 03:24 7,2 C 95 % 1022,3 hPa 0,0 l/m 0,9 km/h (0 Bft) S 175 0 min 0,000 mm 0,0 UV-I 0 W/m 6,5 C 7,2 C 1,6 km/h (1 Bft) 100,00 %
23.09.2016 03:26 7,2 C 95 % 1022,3 hPa 0,0 l/m 0,4 km/h (0 Bft) S 175 0 min 0,000 mm 0,0 UV-I 0 W/m 6,5 C 7,2 C 3,2 km/h (1 Bft) 97,37 %
23.09.2016 03:28 7,2 C 95 % 1022,4 hPa 0,0 l/m 0,0 km/h (0 Bft) S 175 0 min 0,000 mm 0,0 UV-I 0 W/m 6,5 C 7,2 C 0,0 km/h (0 Bft) 100,00 %
23.09.2016 03:30 7,2 C 95 % 1022,4 hPa 0,0 l/m 1,4 km/h (1 Bft) S 175 0 min 0,000 mm 0,0 UV-I 0 W/m 6,5 C 7,2 C 3,2 km/h (1 Bft) 100,00 %
23.09.2016 03:32 7,2 C 95 % 1022,4 hPa 0,0 l/m 1,8 km/h (1 Bft) S 175 0 min 0,000 mm 0,0 UV-I 0 W/m 6,5 C 7,2 C 3,2 km/h (1 Bft) 100,00 %
23.09.2016 03:34 7,2 C 95 % 1022,4 hPa 0,0 l/m 0,6 km/h (0 Bft) S 175 0 min 0,000 mm 0,0 UV-I 0 W/m 6,5 C 7,2 C 1,6 km/h (1 Bft) 100,00 %
23.09.2016 03:36 7,2 C 95 % 1022,4 hPa 0,0 l/m 0,0 km/h (0 Bft) S 175 0 min 0,000 mm 0,0 UV-I 0 W/m 6,5 C 7,2 C 1,6 km/h (1 Bft) 97,37 %
23.09.2016 03:38 7,2 C 95 % 1022,4 hPa 0,0 l/m 0,9 km/h (0 Bft) S 175 0 min 0,000 mm 0,0 UV-I 0 W/m 6,5 C 7,2 C 1,6 km/h (1 Bft) 100,00 %
23.09.2016 03:40 7,1 C 95 % 1022,4 hPa 0,0 l/m 0,4 km/h (0 Bft) S 175 0 min 0,000 mm 0,0 UV-I 0 W/m 6,4 C 7,1 C 1,6 km/h (1 Bft) 100,00 %
23.09.2016 03:42 7,1 C 95 % 1022,4 hPa 0,0 l/m 0,2 km/h (0 Bft) S 175 0 min 0,000 mm 0,0 UV-I 0 W/m 6,4 C 7,1 C 1,6 km/h (1 Bft) 96,08 %
23.09.2016 03:44 7,2 C 95 % 1022,5 hPa 0,0 l/m 0,1 km/h (0 Bft) S 175 0 min 0,000 mm 0,0 UV-I 0 W/m 6,5 C 7,2 C 1,6 km/h (1 Bft) 100,00 %
23.09.2016 03:46 7,2 C 95 % 1022,5 hPa 0,0 l/m 0,0 km/h (0 Bft) S 175 0 min 0,000 mm 0,0 UV-I 0 W/m 6,5 C 7,2 C 0,0 km/h (0 Bft) 100,00 %
23.09.2016 03:48 7,1 C 95 % 1022,5 hPa 0,0 l/m 0,0 km/h (0 Bft) S 175 0 min 0,000 mm 0,0 UV-I 0 W/m 6,4 C 7,1 C 0,0 km/h (0 Bft) 100,00 %
23.09.2016 03:50 7,1 C 95 % 1022,5 hPa 0,0 l/m 0,0 km/h (0 Bft) S 175 0 min 0,000 mm 0,0 UV-I 0 W/m 6,4 C 7,1 C 0,0 km/h (0 Bft) 100,00 %
23.09.2016 03:52 7,0 C 95 % 1022,5 hPa 0,0 l/m 0,0 km/h (0 Bft) S 175 0 min 0,000 mm 0,0 UV-I 0 W/m 6,3 C 7,0 C 0,0 km/h (0 Bft) 100,00 %
23.09.2016 03:54 7,1 C 95 % 1022,5 hPa 0,0 l/m 0,2 km/h (0 Bft) S 175 0 min 0,000 mm 0,0 UV-I 0 W/m 6,4 C 7,1 C 1,6 km/h (1 Bft) 100,00 %
23.09.2016 03:56 7,0 C 95 % 1022,5 hPa 0,0 l/m 0,0 km/h (0 Bft) S 175 0 min 0,000 mm 0,0 UV-I 0 W/m 6,3 C 7,0 C 0,0 km/h (0 Bft) 100,00 %
23.09.2016 03:58 7,0 C 95 % 1022,5 hPa 0,0 l/m 0,0 km/h (0 Bft) S 175 0 min 0,000 mm 0,0 UV-I 0 W/m 6,3 C 7,0 C 0,0 km/h (0 Bft) 100,00 %
23.09.2016 04:00 6,9 C 95 % 1022,5 hPa 0,0 l/m 0,0 km/h (0 Bft) S 175 0 min 0,000 mm 0,0 UV-I 0 W/m 6,2 C 6,9 C 0,0 km/h (0 Bft) 98,39 %
23.09.2016 04:02 6,8 C 95 % 1022,6 hPa 0,0 l/m 0,0 km/h (0 Bft) S 175 0 min 0,000 mm 0,0 UV-I 0 W/m 6,1 C 6,8 C 0,0 km/h (0 Bft) 96,30 %
23.09.2016 04:04 6,8 C 95 % 1022,6 hPa 0,0 l/m 0,0 km/h (0 Bft) S 175 0 min 0,000 mm 0,0 UV-I 0 W/m 6,1 C 6,8 C 0,0 km/h (0 Bft) 100,00 %
23.09.2016 04:06 6,8 C 95 % 1022,6 hPa 0,0 l/m 0,0 km/h (0 Bft) S 175 0 min 0,000 mm 0,0 UV-I 0 W/m 6,1 C 6,8 C 0,0 km/h (0 Bft) 100,00 %
23.09.2016 04:08 6,8 C 95 % 1022,6 hPa 0,0 l/m 0,0 km/h (0 Bft) S 175 0 min 0,000 mm 0,0 UV-I 0 W/m 6,1 C 6,8 C 1,6 km/h (1 Bft) 95,74 %
23.09.2016 04:10 6,8 C 95 % 1022,6 hPa 0,0 l/m 1,6 km/h (1 Bft) S 175 0 min 0,000 mm 0,0 UV-I 0 W/m 6,1 C 6,8 C 3,2 km/h (1 Bft) 100,00 %
23.09.2016 04:12 6,6 C 95 % 1022,6 hPa 0,0 l/m 0,2 km/h (0 Bft) S 175 0 min 0,000 mm 0,0 UV-I 0 W/m 5,9 C 6,6 C 1,6 km/h (1 Bft) 100,00 %
23.09.2016 04:14 6,5 C 95 % 1022,6 hPa 0,0 l/m 0,2 km/h (0 Bft) S 175 0 min 0,000 mm 0,0 UV-I 0 W/m 5,8 C 6,5 C 1,6 km/h (1 Bft) 94,34 %
23.09.2016 04:16 6,4 C 95 % 1022,7 hPa 0,0 l/m 0,0 km/h (0 Bft) S 175 0 min 0,000 mm 0,0 UV-I 0 W/m 5,7 C 6,4 C 1,6 km/h (1 Bft) 97,87 %
23.09.2016 04:18 6,4 C 95 % 1022,7 hPa 0,0 l/m 0,0 km/h (0 Bft) S 175 0 min 0,000 mm 0,0 UV-I 0 W/m 5,7 C 6,4 C 0,0 km/h (0 Bft) 95,12 %
23.09.2016 04:20 6,4 C 96 % 1022,7 hPa 0,0 l/m 0,0 km/h (0 Bft) S 175 0 min 0,000 mm 0,0 UV-I 0 W/m 5,8 C 6,4 C 0,0 km/h (0 Bft) 95,74 %
23.09.2016 04:22 6,5 C 96 % 1022,7 hPa 0,0 l/m 0,0 km/h (0 Bft) S 175 0 min 0,000 mm 0,0 UV-I 0 W/m 5,9 C 6,5 C 0,0 km/h (0 Bft) 97,87 %
23.09.2016 04:24 6,6 C 96 % 1022,7 hPa 0,0 l/m 0,0 km/h (0 Bft) S 175 0 min 0,000 mm 0,0 UV-I 0 W/m 6,0 C 6,6 C 0,0 km/h (0 Bft) 98,00 %
23.09.2016 04:26 6,6 C 96 % 1022,7 hPa 0,0 l/m 0,0 km/h (0 Bft) S 175 0 min 0,000 mm 0,0 UV-I 0 W/m 6,0 C 6,6 C 0,0 km/h (0 Bft) 98,00 %
23.09.2016 04:28 6,6 C 96 % 1022,7 hPa 0,0 l/m 0,0 km/h (0 Bft) S 175 0 min 0,000 mm 0,0 UV-I 0 W/m 6,0 C 6,6 C 0,0 km/h (0 Bft) 95,74 %
23.09.2016 04:30 6,6 C 96 % 1022,7 hPa 0,0 l/m 0,0 km/h (0 Bft) S 175 0 min 0,000 mm 0,0 UV-I 0 W/m 6,0 C 6,6 C 0,0 km/h (0 Bft) 97,56 %
23.09.2016 04:32 6,6 C 96 % 1022,7 hPa 0,0 l/m 0,0 km/h (0 Bft) S 175 0 min 0,000 mm 0,0 UV-I 0 W/m 6,0 C 6,6 C 0,0 km/h (0 Bft) 98,00 %
23.09.2016 04:34 6,6 C 96 % 1022,7 hPa 0,0 l/m 0,0 km/h (0 Bft) S 175 0 min 0,000 mm 0,0 UV-I 0 W/m 6,0 C 6,6 C 0,0 km/h (0 Bft) 95,74 %
23.09.2016 04:36 6,6 C 96 % 1022,7 hPa 0,0 l/m 0,0 km/h (0 Bft) S 175 0 min 0,000 mm 0,0 UV-I 0 W/m 6,0 C 6,6 C 0,0 km/h (0 Bft) 97,87 %
23.09.2016 04:38 6,6 C 96 % 1022,7 hPa 0,0 l/m 0,0 km/h (0 Bft) S 175 0 min 0,000 mm 0,0 UV-I 0 W/m 6,0 C 6,6 C 0,0 km/h (0 Bft) 95,83 %
23.09.2016 04:40 6,6 C 96 % 1022,8 hPa 0,0 l/m 0,0 km/h (0 Bft) S 175 0 min 0,000 mm 0,0 UV-I 0 W/m 6,0 C 6,6 C 0,0 km/h (0 Bft) 97,87 %
23.09.2016 04:42 6,5 C 96 % 1022,8 hPa 0,0 l/m 0,0 km/h (0 Bft) S 175 0 min 0,000 mm 0,0 UV-I 0 W/m 5,9 C 6,5 C 0,0 km/h (0 Bft) 98,00 %
23.09.2016 04:44 6,4 C 96 % 1022,8 hPa 0,0 l/m 0,3 km/h (0 Bft) S 175 0 min 0,000 mm 0,0 UV-I 0 W/m 5,8 C 6,4 C 1,6 km/h (1 Bft) 97,37 %
23.09.2016 04:46 6,4 C 95 % 1022,8 hPa 0,0 l/m 0,0 km/h (0 Bft) S 175 0 min 0,000 mm 0,0 UV-I 0 W/m 5,7 C 6,4 C 1,6 km/h (1 Bft) 92,11 %
23.09.2016 04:48 6,3 C 95 % 1022,8 hPa 0,0 l/m 0,0 km/h (0 Bft) S 175 0 min 0,000 mm 0,0 UV-I 0 W/m 5,6 C 6,3 C 0,0 km/h (0 Bft) 98,39 %
23.09.2016 04:50 6,3 C 95 % 1022,8 hPa 0,0 l/m 0,0 km/h (0 Bft) S 175 0 min 0,000 mm 0,0 UV-I 0 W/m 5,6 C 6,3 C 0,0 km/h (0 Bft) 97,87 %
23.09.2016 04:52 6,3 C 96 % 1022,8 hPa 0,0 l/m 0,0 km/h (0 Bft) S 175 0 min 0,000 mm 0,0 UV-I 0 W/m 5,7 C 6,3 C 0,0 km/h (0 Bft) 100,00 %
23.09.2016 04:54 6,3 C 96 % 1022,8 hPa 0,0 l/m 0,0 km/h (0 Bft) S 175 0 min 0,000 mm 0,0 UV-I 0 W/m 5,7 C 6,3 C 0,0 km/h (0 Bft) 100,00 %
23.09.2016 04:56 6,4 C 96 % 1022,8 hPa 0,0 l/m 0,0 km/h (0 Bft) S 175 0 min 0,000 mm 0,0 UV-I 0 W/m 5,8 C 6,4 C 0,0 km/h (0 Bft) 97,87 %
23.09.2016 04:58 6,4 C 96 % 1022,8 hPa 0,0 l/m 0,0 km/h (0 Bft) S 175 0 min 0,000 mm 0,0 UV-I 0 W/m 5,8 C 6,4 C 0,0 km/h (0 Bft) 100,00 %
23.09.2016 05:00 6,4 C 96 % 1022,9 hPa 0,0 l/m 0,0 km/h (0 Bft) S 175 0 min 0,000 mm 0,0 UV-I 0 W/m 5,8 C 6,4 C 0,0 km/h (0 Bft) 98,00 %
23.09.2016 05:02 6,3 C 95 % 1022,9 hPa 0,0 l/m 0,0 km/h (0 Bft) S 175 0 min 0,000 mm 0,0 UV-I 0 W/m 5,6 C 6,3 C 0,0 km/h (0 Bft) 98,00 %
23.09.2016 05:04 6,3 C 96 % 1022,8 hPa 0,0 l/m 0,0 km/h (0 Bft) S 175 0 min 0,000 mm 0,0 UV-I 0 W/m 5,7 C 6,3 C 0,0 km/h (0 Bft) 100,00 %
23.09.2016 05:06 6,2 C 96 % 1022,9 hPa 0,0 l/m 0,0 km/h (0 Bft) S 175 0 min 0,000 mm 0,0 UV-I 0 W/m 5,6 C 6,2 C 0,0 km/h (0 Bft) 97,87 %
23.09.2016 05:08 6,2 C 96 % 1022,8 hPa 0,0 l/m 0,0 km/h (0 Bft) S 175 0 min 0,000 mm 0,0 UV-I 0 W/m 5,6 C 6,2 C 0,0 km/h (0 Bft) 100,00 %
23.09.2016 05:10 6,2 C 96 % 1022,8 hPa 0,0 l/m 0,4 km/h (0 Bft) S 175 0 min 0,000 mm 0,0 UV-I 0 W/m 5,6 C 6,2 C 3,2 km/h (1 Bft) 100,00 %
23.09.2016 05:12 6,1 C 96 % 1022,9 hPa 0,0 l/m 0,6 km/h (0 Bft) S 175 0 min 0,000 mm 0,0 UV-I 0 W/m 5,5 C 6,1 C 3,2 km/h (1 Bft) 97,87 %
23.09.2016 05:14 6,1 C 96 % 1022,9 hPa 0,0 l/m 0,0 km/h (0 Bft) S 175 0 min 0,000 mm 0,0 UV-I 0 W/m 5,5 C 6,1 C 0,0 km/h (0 Bft) 97,87 %
23.09.2016 05:16 6,0 C 95 % 1022,8 hPa 0,0 l/m 0,0 km/h (0 Bft) S 175 0 min 0,000 mm 0,0 UV-I 0 W/m 5,3 C 6,0 C 0,0 km/h (0 Bft) 98,00 %
23.09.2016 05:18 5,9 C 95 % 1022,8 hPa 0,0 l/m 0,4 km/h (0 Bft) S 175 0 min 0,000 mm 0,0 UV-I 0 W/m 5,2 C 5,9 C 1,6 km/h (1 Bft) 100,00 %
23.09.2016 05:20 5,9 C 96 % 1022,9 hPa 0,0 l/m 1,3 km/h (1 Bft) S 175 0 min 0,000 mm 0,0 UV-I 0 W/m 5,3 C 5,9 C 1,6 km/h (1 Bft) 100,00 %
23.09.2016 05:22 6,0 C 96 % 1022,9 hPa 0,0 l/m 0,0 km/h (0 Bft) S 175 0 min 0,000 mm 0,0 UV-I 0 W/m 5,4 C 6,0 C 1,6 km/h (1 Bft) 100,00 %
23.09.2016 05:24 6,0 C 96 % 1022,9 hPa 0,0 l/m 0,0 km/h (0 Bft) S 175 0 min 0,000 mm 0,0 UV-I 0 W/m 5,4 C 6,0 C 0,0 km/h (0 Bft) 100,00 %
23.09.2016 05:26 6,1 C 96 % 1022,9 hPa 0,0 l/m 0,0 km/h (0 Bft) S 175 0 min 0,000 mm 0,0 UV-I 0 W/m 5,5 C 6,1 C 0,0 km/h (0 Bft) 98,11 %
23.09.2016 05:28 6,1 C 96 % 1022,9 hPa 0,0 l/m 0,0 km/h (0 Bft) S 175 0 min 0,000 mm 0,0 UV-I 0 W/m 5,5 C 6,1 C 0,0 km/h (0 Bft) 100,00 %
23.09.2016 05:30 6,0 C 96 % 1022,9 hPa 0,0 l/m 0,0 km/h (0 Bft) S 175 0 min 0,000 mm 0,0 UV-I 0 W/m 5,4 C 6,0 C 0,0 km/h (0 Bft) 100,00 %
23.09.2016 05:32 5,9 C 96 % 1022,9 hPa 0,0 l/m 0,0 km/h (0 Bft) S 175 0 min 0,000 mm 0,0 UV-I 0 W/m 5,3 C 5,9 C 1,6 km/h (1 Bft) 100,00 %
23.09.2016 05:34 5,9 C 96 % 1022,9 hPa 0,0 l/m 0,0 km/h (0 Bft) S 175 0 min 0,000 mm 0,0 UV-I 0 W/m 5,3 C 5,9 C 0,0 km/h (0 Bft) 100,00 %
23.09.2016 05:36 5,9 C 96 % 1022,9 hPa 0,0 l/m 0,0 km/h (0 Bft) S 175 0 min 0,000 mm 0,0 UV-I 0 W/m 5,3 C 5,9 C 0,0 km/h (0 Bft) 100,00 %
23.09.2016 05:38 5,9 C 96 % 1022,9 hPa 0,0 l/m 0,0 km/h (0 Bft) S 175 0 min 0,000 mm 0,0 UV-I 0 W/m 5,3 C 5,9 C 1,6 km/h (1 Bft) 100,00 %
23.09.2016 05:40 5,8 C 96 % 1022,9 hPa 0,0 l/m 0,2 km/h (0 Bft) S 175 0 min 0,000 mm 0,0 UV-I 0 W/m 5,2 C 5,8 C 1,6 km/h (1 Bft) 98,00 %
23.09.2016 05:42 5,8 C 96 % 1022,9 hPa 0,0 l/m 2,2 km/h (1 Bft) S 175 0 min 0,000 mm 0,0 UV-I 0 W/m 5,2 C 5,8 C 3,2 km/h (1 Bft) 100,00 %
23.09.2016 05:44 5,8 C 96 % 1022,9 hPa 0,0 l/m 2,4 km/h (1 Bft) S 175 0 min 0,000 mm 0,0 UV-I 0 W/m 5,2 C 5,8 C 3,2 km/h (1 Bft) 100,00 %
23.09.2016 05:46 5,8 C 96 % 1022,9 hPa 0,0 l/m 1,8 km/h (1 Bft) S 175 0 min 0,000 mm 0,0 UV-I 0 W/m 5,2 C 5,8 C 3,2 km/h (1 Bft) 96,00 %
23.09.2016 05:48 5,7 C 96 % 1022,9 hPa 0,0 l/m 2,1 km/h (1 Bft) S 175 0 min 0,000 mm 0,0 UV-I 0 W/m 5,1 C 5,7 C 3,2 km/h (1 Bft) 100,00 %
23.09.2016 05:50 5,7 C 96 % 1022,9 hPa 0,0 l/m 2,6 km/h (1 Bft) S 175 0 min 0,000 mm 0,0 UV-I 0 W/m 5,1 C 5,7 C 3,2 km/h (1 Bft) 100,00 %
23.09.2016 05:52 5,6 C 96 % 1022,8 hPa 0,0 l/m 2,4 km/h (1 Bft) S 175 0 min 0,000 mm 0,0 UV-I 0 W/m 5,0 C 5,6 C 3,2 km/h (1 Bft) 97,87 %
23.09.2016 05:54 5,6 C 96 % 1022,8 hPa 0,0 l/m 3,1 km/h (1 Bft) S 175 0 min 0,000 mm 0,0 UV-I 0 W/m 5,0 C 5,6 C 3,2 km/h (1 Bft) 97,92 %
23.09.2016 05:56 5,5 C 96 % 1022,9 hPa 0,0 l/m 2,5 km/h (1 Bft) S 175 0 min 0,000 mm 0,0 UV-I 0 W/m 4,9 C 5,5 C 3,2 km/h (1 Bft) 100,00 %
23.09.2016 05:58 5,6 C 96 % 1022,9 hPa 0,0 l/m 2,7 km/h (1 Bft) S 175 0 min 0,000 mm 0,0 UV-I 0 W/m 5,0 C 5,6 C 3,2 km/h (1 Bft) 100,00 %
23.09.2016 06:00 5,7 C 96 % 1022,9 hPa 0,0 l/m 1,2 km/h (1 Bft) S 175 0 min 0,000 mm 0,0 UV-I 0 W/m 5,1 C 5,7 C 3,2 km/h (1 Bft) 100,00 %
23.09.2016 06:02 5,7 C 96 % 1022,9 hPa 0,0 l/m 0,0 km/h (0 Bft) S 175 0 min 0,000 mm 0,0 UV-I 0 W/m 5,1 C 5,7 C 1,6 km/h (1 Bft) 100,00 %
23.09.2016 06:04 5,8 C 96 % 1022,9 hPa 0,0 l/m 0,0 km/h (0 Bft) S 175 0 min 0,000 mm 0,0 UV-I 0 W/m 5,2 C 5,8 C 0,0 km/h (0 Bft) 97,14 %
23.09.2016 06:06 5,7 C 96 % 1022,9 hPa 0,0 l/m 0,0 km/h (0 Bft) S 175 0 min 0,000 mm 0,0 UV-I 0 W/m 5,1 C 5,7 C 0,0 km/h (0 Bft) 98,11 %
23.09.2016 06:08 5,7 C 96 % 1022,9 hPa 0,0 l/m 0,9 km/h (0 Bft) S 175 0 min 0,000 mm 0,0 UV-I 0 W/m 5,1 C 5,7 C 1,6 km/h (1 Bft) 100,00 %
23.09.2016 06:10 5,7 C 96 % 1022,9 hPa 0,0 l/m 0,1 km/h (0 Bft) S 175 0 min 0,000 mm 0,0 UV-I 0 W/m 5,1 C 5,7 C 1,6 km/h (1 Bft) 100,00 %
23.09.2016 06:12 5,7 C 96 % 1022,9 hPa 0,0 l/m 0,3 km/h (0 Bft) S 175 0 min 0,000 mm 0,0 UV-I 0 W/m 5,1 C 5,7 C 1,6 km/h (1 Bft) 94,00 %
23.09.2016 06:14 5,6 C 96 % 1022,9 hPa 0,0 l/m 0,2 km/h (0 Bft) S 175 0 min 0,000 mm 0,0 UV-I 0 W/m 5,0 C 5,6 C 1,6 km/h (1 Bft) 97,87 %
23.09.2016 06:16 5,7 C 96 % 1022,9 hPa 0,0 l/m 0,0 km/h (0 Bft) S 175 0 min 0,000 mm 0,0 UV-I 0 W/m 5,1 C 5,7 C 1,6 km/h (1 Bft) 94,74 %
23.09.2016 06:18 5,7 C 96 % 1022,9 hPa 0,0 l/m 0,7 km/h (0 Bft) S 175 0 min 0,000 mm 0,0 UV-I 0 W/m 5,1 C 5,7 C 1,6 km/h (1 Bft) 97,87 %
23.09.2016 06:20 5,6 C 96 % 1022,9 hPa 0,0 l/m 2,4 km/h (1 Bft) S 175 0 min 0,000 mm 0,0 UV-I 0 W/m 5,0 C 5,6 C 3,2 km/h (1 Bft) 97,87 %
23.09.2016 06:22 5,6 C 96 % 1023,0 hPa 0,0 l/m 2,2 km/h (1 Bft) S 175 0 min 0,000 mm 0,0 UV-I 0 W/m 5,0 C 5,6 C 3,2 km/h (1 Bft) 96,00 %
23.09.2016 06:24 5,6 C 96 % 1023,0 hPa 0,0 l/m 2,0 km/h (1 Bft) S 175 0 min 0,000 mm 0,0 UV-I 0 W/m 5,0 C 5,6 C 3,2 km/h (1 Bft) 97,44 %
23.09.2016 06:26 5,6 C 96 % 1023,1 hPa 0,0 l/m 2,0 km/h (1 Bft) S 175 0 min 0,000 mm 0,0 UV-I 0 W/m 5,0 C 5,6 C 3,2 km/h (1 Bft) 96,23 %
23.09.2016 06:28 5,6 C 96 % 1023,1 hPa 0,0 l/m 1,9 km/h (1 Bft) S 175 0 min 0,000 mm 0,0 UV-I 0 W/m 5,0 C 5,6 C 3,2 km/h (1 Bft) 98,00 %
23.09.2016 06:30 5,6 C 96 % 1023,1 hPa 0,0 l/m 2,4 km/h (1 Bft) S 175 0 min 0,000 mm 0,0 UV-I 0 W/m 5,0 C 5,6 C 3,2 km/h (1 Bft) 96,00 %
23.09.2016 06:32 5,5 C 96 % 1023,1 hPa 0,0 l/m 2,7 km/h (1 Bft) S 175 0 min 0,000 mm 0,0 UV-I 0 W/m 4,9 C 5,5 C 4,8 km/h (1 Bft) 97,37 %
23.09.2016 06:34 5,5 C 96 % 1023,2 hPa 0,0 l/m 2,4 km/h (1 Bft) S 175 0 min 0,000 mm 0,0 UV-I 0 W/m 4,9 C 5,5 C 3,2 km/h (1 Bft) 93,75 %
23.09.2016 06:36 5,5 C 96 % 1023,1 hPa 0,0 l/m 1,9 km/h (1 Bft) S 175 0 min 0,000 mm 0,0 UV-I 0 W/m 4,9 C 5,5 C 3,2 km/h (1 Bft) 97,96 %
23.09.2016 06:38 5,5 C 96 % 1023,2 hPa 0,0 l/m 1,8 km/h (1 Bft) S 175 0 min 0,000 mm 0,0 UV-I 0 W/m 4,9 C 5,5 C 3,2 km/h (1 Bft) 96,23 %
23.09.2016 06:40 5,5 C 96 % 1023,2 hPa 0,0 l/m 0,9 km/h (0 Bft) S 175 0 min 0,000 mm 0,0 UV-I 0 W/m 4,9 C 5,5 C 3,2 km/h (1 Bft) 97,87 %
23.09.2016 06:42 5,5 C 96 % 1023,3 hPa 0,0 l/m 2,1 km/h (1 Bft) S 175 0 min 0,000 mm 0,0 UV-I 0 W/m 4,9 C 5,5 C 3,2 km/h (1 Bft) 97,92 %
23.09.2016 06:44 5,5 C 96 % 1023,3 hPa 0,0 l/m 3,0 km/h (1 Bft) S 175 0 min 0,000 mm 0,0 UV-I 0 W/m 4,9 C 5,5 C 4,8 km/h (1 Bft) 97,56 %
23.09.2016 06:46 5,6 C 96 % 1023,3 hPa 0,0 l/m 3,1 km/h (1 Bft) S 175 0 min 0,000 mm 0,0 UV-I 0 W/m 5,0 C 5,6 C 4,8 km/h (1 Bft) 100,00 %
23.09.2016 06:48 5,6 C 96 % 1023,4 hPa 0,0 l/m 2,1 km/h (1 Bft) S 175 0 min 0,000 mm 0,0 UV-I 0 W/m 5,0 C 5,6 C 3,2 km/h (1 Bft) 95,74 %
23.09.2016 06:50 5,7 C 97 % 1023,3 hPa 0,0 l/m 2,4 km/h (1 Bft) S 175 0 min 0,000 mm 0,0 UV-I 0 W/m 5,3 C 5,7 C 4,8 km/h (1 Bft) 97,56 %
23.09.2016 06:52 5,7 C 97 % 1023,4 hPa 0,0 l/m 2,7 km/h (1 Bft) S 175 0 min 0,000 mm 0,0 UV-I 2 W/m 5,3 C 5,7 C 4,8 km/h (1 Bft) 100,00 %
23.09.2016 06:54 5,6 C 96 % 1023,4 hPa 0,0 l/m 1,8 km/h (1 Bft) S 175 0 min 0,000 mm 0,0 UV-I 5 W/m 5,0 C 5,6 C 3,2 km/h (1 Bft) 100,00 %
23.09.2016 06:56 5,6 C 96 % 1023,4 hPa 0,0 l/m 0,6 km/h (0 Bft) S 175 0 min 0,000 mm 0,0 UV-I 6 W/m 5,0 C 5,6 C 1,6 km/h (1 Bft) 100,00 %
23.09.2016 06:58 5,6 C 96 % 1023,3 hPa 0,0 l/m 2,1 km/h (1 Bft) S 175 0 min 0,000 mm 0,0 UV-I 9 W/m 5,0 C 5,6 C 4,8 km/h (1 Bft) 97,37 %
23.09.2016 07:00 5,7 C 96 % 1023,4 hPa 0,0 l/m 3,1 km/h (1 Bft) S 175 0 min 0,000 mm 0,0 UV-I 10 W/m 5,1 C 5,7 C 4,8 km/h (1 Bft) 100,00 %
23.09.2016 07:02 5,8 C 97 % 1023,4 hPa 0,0 l/m 3,5 km/h (1 Bft) S 175 2 min 0,000 mm 0,0 UV-I 12 W/m 5,4 C 5,8 C 4,8 km/h (1 Bft) 100,00 %
23.09.2016 07:04 5,9 C 97 % 1023,4 hPa 0,0 l/m 3,4 km/h (1 Bft) S 175 2 min 0,000 mm 0,0 UV-I 13 W/m 5,5 C 5,9 C 4,8 km/h (1 Bft) 100,00 %
23.09.2016 07:06 5,9 C 97 % 1023,4 hPa 0,0 l/m 3,6 km/h (1 Bft) S 175 2 min 0,000 mm 0,0 UV-I 17 W/m 5,5 C 5,9 C 4,8 km/h (1 Bft) 100,00 %
23.09.2016 07:08 6,0 C 97 % 1023,4 hPa 0,0 l/m 3,3 km/h (1 Bft) S 175 2 min 0,000 mm 0,0 UV-I 19 W/m 5,6 C 6,0 C 4,8 km/h (1 Bft) 100,00 %
23.09.2016 07:10 6,1 C 97 % 1023,4 hPa 0,0 l/m 3,1 km/h (1 Bft) S 175 2 min 0,000 mm 0,0 UV-I 22 W/m 5,7 C 6,1 C 4,8 km/h (1 Bft) 97,37 %
23.09.2016 07:12 6,2 C 97 % 1023,4 hPa 0,0 l/m 1,9 km/h (1 Bft) S 175 2 min 0,000 mm 0,0 UV-I 25 W/m 5,8 C 6,2 C 3,2 km/h (1 Bft) 100,00 %
23.09.2016 07:14 6,2 C 96 % 1023,3 hPa 0,0 l/m 2,6 km/h (1 Bft) S 175 0 min 0,000 mm 0,0 UV-I 26 W/m 5,6 C 6,2 C 4,8 km/h (1 Bft) 100,00 %
23.09.2016 07:16 6,3 C 96 % 1023,3 hPa 0,0 l/m 3,6 km/h (1 Bft) S 172 0 min 0,000 mm 0,0 UV-I 28 W/m 5,7 C 6,3 C 6,4 km/h (2 Bft) 100,00 %
23.09.2016 07:18 6,4 C 97 % 1023,4 hPa 0,0 l/m 4,1 km/h (1 Bft) S 171 0 min 0,000 mm 0,0 UV-I 28 W/m 6,0 C 6,4 C 6,4 km/h (2 Bft) 100,00 %
23.09.2016 07:20 6,4 C 97 % 1023,4 hPa 0,0 l/m 3,3 km/h (1 Bft) S 171 0 min 0,000 mm 0,0 UV-I 30 W/m 6,0 C 6,4 C 6,4 km/h (2 Bft) 100,00 %
23.09.2016 07:22 6,6 C 96 % 1023,4 hPa 0,0 l/m 2,1 km/h (1 Bft) S 171 0 min 0,000 mm 0,0 UV-I 32 W/m 6,0 C 6,6 C 6,4 km/h (2 Bft) 100,00 %
23.09.2016 07:24 6,6 C 96 % 1023,4 hPa 0,0 l/m 2,9 km/h (1 Bft) S 171 0 min 0,000 mm 0,0 UV-I 33 W/m 6,0 C 6,6 C 6,4 km/h (2 Bft) 97,56 %
23.09.2016 07:26 6,6 C 96 % 1023,4 hPa 0,0 l/m 2,8 km/h (1 Bft) S 171 0 min 0,000 mm 0,0 UV-I 34 W/m 6,0 C 6,6 C 6,4 km/h (2 Bft) 98,11 %
23.09.2016 07:28 6,7 C 96 % 1023,4 hPa 0,0 l/m 2,0 km/h (1 Bft) S 171 0 min 0,000 mm 0,0 UV-I 35 W/m 6,1 C 6,7 C 3,2 km/h (1 Bft) 100,00 %
23.09.2016 07:30 6,6 C 96 % 1023,4 hPa 0,0 l/m 2,6 km/h (1 Bft) S 171 0 min 0,000 mm 0,0 UV-I 37 W/m 6,0 C 6,6 C 6,4 km/h (2 Bft) 100,00 %
23.09.2016 07:32 6,6 C 96 % 1023,4 hPa 0,0 l/m 2,7 km/h (1 Bft) S 171 0 min 0,000 mm 0,0 UV-I 42 W/m 6,0 C 6,6 C 3,2 km/h (1 Bft) 98,21 %
23.09.2016 07:34 6,6 C 96 % 1023,5 hPa 0,0 l/m 1,6 km/h (1 Bft) S 171 2 min 0,000 mm 0,0 UV-I 59 W/m 6,0 C 6,6 C 3,2 km/h (1 Bft) 100,00 %
23.09.2016 07:36 6,7 C 96 % 1023,5 hPa 0,2 l/m 1,1 km/h (1 Bft) S 171 2 min 0,000 mm 0,0 UV-I 70 W/m 6,1 C 6,7 C 1,6 km/h (1 Bft) 100,00 %
23.09.2016 07:38 6,8 C 96 % 1023,5 hPa 0,0 l/m 0,7 km/h (0 Bft) S 171 2 min 0,000 mm 0,0 UV-I 66 W/m 6,2 C 6,8 C 3,2 km/h (1 Bft) 97,56 %
23.09.2016 07:40 6,9 C 96 % 1023,5 hPa 0,0 l/m 0,2 km/h (0 Bft) S 171 0 min 0,000 mm 0,0 UV-I 58 W/m 6,3 C 6,9 C 1,6 km/h (1 Bft) 100,00 %
23.09.2016 07:42 6,9 C 96 % 1023,5 hPa 0,0 l/m 0,0 km/h (0 Bft) S 171 0 min 0,000 mm 0,0 UV-I 56 W/m 6,3 C 6,9 C 1,6 km/h (1 Bft) 97,87 %
23.09.2016 07:44 6,9 C 96 % 1023,5 hPa 0,0 l/m 0,2 km/h (0 Bft) S 171 0 min 0,000 mm 0,0 UV-I 46 W/m 6,3 C 6,9 C 1,6 km/h (1 Bft) 97,56 %
23.09.2016 07:46 6,9 C 96 % 1023,6 hPa 0,0 l/m 2,5 km/h (1 Bft) S 171 0 min 0,000 mm 0,0 UV-I 47 W/m 6,3 C 6,9 C 3,2 km/h (1 Bft) 100,00 %
23.09.2016 07:48 6,9 C 96 % 1023,6 hPa 0,0 l/m 2,1 km/h (1 Bft) S 171 0 min 0,000 mm 0,0 UV-I 53 W/m 6,3 C 6,9 C 3,2 km/h (1 Bft) 100,00 %
23.09.2016 07:50 6,9 C 96 % 1023,7 hPa 0,0 l/m 0,4 km/h (0 Bft) S 171 0 min 0,000 mm 0,0 UV-I 63 W/m 6,3 C 6,9 C 3,2 km/h (1 Bft) 100,00 %
23.09.2016 07:52 6,9 C 96 % 1023,8 hPa 0,0 l/m 0,1 km/h (0 Bft) S 171 0 min 0,000 mm 0,0 UV-I 68 W/m 6,3 C 6,9 C 1,6 km/h (1 Bft) 97,87 %
23.09.2016 07:54 6,9 C 96 % 1023,8 hPa 0,0 l/m 0,1 km/h (0 Bft) S 171 0 min 0,000 mm 0,0 UV-I 72 W/m 6,3 C 6,9 C 1,6 km/h (1 Bft) 100,00 %
23.09.2016 07:56 6,9 C 96 % 1023,9 hPa 0,0 l/m 0,0 km/h (0 Bft) S 171 0 min 0,000 mm 0,0 UV-I 80 W/m 6,3 C 6,9 C 0,0 km/h (0 Bft) 98,11 %
23.09.2016 07:58 6,9 C 96 % 1023,9 hPa 0,0 l/m 0,0 km/h (0 Bft) S 171 0 min 0,000 mm 0,0 UV-I 96 W/m 6,3 C 6,9 C 0,0 km/h (0 Bft) 100,00 %
23.09.2016 08:00 6,8 C 96 % 1023,9 hPa 0,0 l/m 0,0 km/h (0 Bft) S 171 0 min 0,025 mm 0,0 UV-I 86 W/m 6,2 C 6,8 C 0,0 km/h (0 Bft) 100,00 %
23.09.2016 08:02 6,8 C 96 % 1023,9 hPa 0,0 l/m 0,1 km/h (0 Bft) S 171 0 min 0,000 mm 0,0 UV-I 56 W/m 6,2 C 6,8 C 1,6 km/h (1 Bft) 100,00 %
23.09.2016 08:04 6,8 C 96 % 1023,9 hPa 0,0 l/m 0,0 km/h (0 Bft) S 171 0 min 0,000 mm 0,0 UV-I 53 W/m 6,2 C 6,8 C 0,0 km/h (0 Bft) 100,00 %
23.09.2016 08:06 6,9 C 96 % 1023,9 hPa 0,0 l/m 0,3 km/h (0 Bft) S 171 0 min 0,000 mm 0,0 UV-I 76 W/m 6,3 C 6,9 C 1,6 km/h (1 Bft) 98,11 %
23.09.2016 08:08 6,9 C 96 % 1024,0 hPa 0,0 l/m 0,1 km/h (0 Bft) S 171 0 min 0,000 mm 0,0 UV-I 90 W/m 6,3 C 6,9 C 1,6 km/h (1 Bft) 100,00 %
23.09.2016 08:10 6,9 C 96 % 1024,0 hPa 0,0 l/m 0,0 km/h (0 Bft) S 171 0 min 0,000 mm 0,0 UV-I 91 W/m 6,3 C 6,9 C 0,0 km/h (0 Bft) 100,00 %
23.09.2016 08:12 7,1 C 96 % 1024,0 hPa 0,0 l/m 0,0 km/h (0 Bft) S 171 0 min 0,000 mm 0,0 UV-I 101 W/m 6,5 C 7,1 C 0,0 km/h (0 Bft) 97,56 %
23.09.2016 08:14 7,1 C 96 % 1023,9 hPa 0,0 l/m 0,9 km/h (0 Bft) S 171 0 min 0,000 mm 0,0 UV-I 106 W/m 6,5 C 7,1 C 1,6 km/h (1 Bft) 100,00 %
23.09.2016 08:16 7,2 C 96 % 1023,9 hPa 0,0 l/m 0,3 km/h (0 Bft) S 171 2 min 0,000 mm 0,0 UV-I 126 W/m 6,6 C 7,2 C 1,6 km/h (1 Bft) 98,11 %
23.09.2016 08:18 7,3 C 96 % 1023,9 hPa 0,0 l/m 0,0 km/h (0 Bft) S 171 2 min 0,000 mm 0,0 UV-I 142 W/m 6,7 C 7,3 C 1,6 km/h (1 Bft) 97,87 %
23.09.2016 08:20 7,6 C 96 % 1024,0 hPa 0,0 l/m 0,0 km/h (0 Bft) S 171 2 min 0,000 mm 0,0 UV-I 158 W/m 7,0 C 7,6 C 0,0 km/h (0 Bft) 95,74 %
23.09.2016 08:22 7,7 C 96 % 1024,0 hPa 0,0 l/m 0,0 km/h (0 Bft) S 171 2 min 0,000 mm 0,0 UV-I 167 W/m 7,1 C 7,7 C 0,0 km/h (0 Bft) 97,37 %
23.09.2016 08:24 7,8 C 96 % 1024,0 hPa 0,0 l/m 0,0 km/h (0 Bft) S 171 2 min 0,000 mm 0,0 UV-I 172 W/m 7,2 C 7,8 C 0,0 km/h (0 Bft) 95,74 %
23.09.2016 08:26 7,9 C 96 % 1024,0 hPa 0,0 l/m 0,0 km/h (0 Bft) S 171 2 min 0,000 mm 0,0 UV-I 181 W/m 7,3 C 7,9 C 0,0 km/h (0 Bft) 96,00 %
23.09.2016 08:28 8,1 C 96 % 1024,0 hPa 0,0 l/m 0,0 km/h (0 Bft) S 171 2 min 0,000 mm 0,0 UV-I 192 W/m 7,5 C 8,1 C 0,0 km/h (0 Bft) 97,87 %
23.09.2016 08:30 8,2 C 95 % 1024,1 hPa 0,0 l/m 0,0 km/h (0 Bft) S 171 2 min 0,000 mm 0,0 UV-I 194 W/m 7,4 C 8,2 C 0,0 km/h (0 Bft) 95,74 %
23.09.2016 08:32 8,2 C 95 % 1024,0 hPa 0,0 l/m 0,3 km/h (0 Bft) S 171 2 min 0,000 mm 0,0 UV-I 202 W/m 7,4 C 8,2 C 1,6 km/h (1 Bft) 95,74 %
23.09.2016 08:34 8,3 C 95 % 1024,1 hPa 0,0 l/m 0,1 km/h (0 Bft) S 171 2 min 0,000 mm 0,0 UV-I 207 W/m 7,5 C 8,3 C 1,6 km/h (1 Bft) 95,74 %
23.09.2016 08:36 8,5 C 95 % 1024,2 hPa 0,0 l/m 0,2 km/h (0 Bft) S 171 2 min 0,000 mm 0,0 UV-I 208 W/m 7,7 C 8,5 C 1,6 km/h (1 Bft) 96,00 %
23.09.2016 08:38 8,7 C 94 % 1024,2 hPa 0,0 l/m 0,0 km/h (0 Bft) S 171 2 min 0,000 mm 0,0 UV-I 209 W/m 7,8 C 8,7 C 1,6 km/h (1 Bft) 95,83 %
23.09.2016 08:40 8,8 C 93 % 1024,2 hPa 0,0 l/m 0,0 km/h (0 Bft) S 171 2 min 0,000 mm 0,0 UV-I 218 W/m 7,7 C 8,8 C 0,0 km/h (0 Bft) 97,37 %
23.09.2016 08:42 9,0 C 92 % 1024,2 hPa 0,0 l/m 0,0 km/h (0 Bft) S 171 2 min 0,000 mm 0,1 UV-I 225 W/m 7,8 C 9,0 C 1,6 km/h (1 Bft) 97,87 %
23.09.2016 08:44 9,2 C 92 % 1024,2 hPa 0,0 l/m 0,0 km/h (0 Bft) S 171 2 min 0,000 mm 0,5 UV-I 230 W/m 8,0 C 9,2 C 0,0 km/h (0 Bft) 91,49 %
23.09.2016 08:46 9,2 C 91 % 1024,2 hPa 0,0 l/m 0,0 km/h (0 Bft) S 171 2 min 0,000 mm 0,5 UV-I 235 W/m 7,8 C 9,2 C 0,0 km/h (0 Bft) 96,00 %
23.09.2016 08:48 9,2 C 91 % 1024,2 hPa 0,0 l/m 0,1 km/h (0 Bft) S 171 2 min 0,000 mm 0,5 UV-I 245 W/m 7,8 C 9,2 C 1,6 km/h (1 Bft) 97,87 %
23.09.2016 08:50 9,2 C 91 % 1024,2 hPa 0,0 l/m 0,0 km/h (0 Bft) S 171 2 min 0,000 mm 0,5 UV-I 253 W/m 7,8 C 9,2 C 0,0 km/h (0 Bft) 95,74 %
23.09.2016 08:52 9,2 C 91 % 1024,2 hPa 0,0 l/m 0,0 km/h (0 Bft) S 171 2 min 0,000 mm 0,6 UV-I 263 W/m 7,8 C 9,2 C 0,0 km/h (0 Bft) 100,00 %
23.09.2016 08:54 9,4 C 91 % 1024,2 hPa 0,0 l/m 0,1 km/h (0 Bft) S 171 2 min 0,000 mm 0,6 UV-I 273 W/m 8,0 C 9,4 C 1,6 km/h (1 Bft) 100,00 %
23.09.2016 08:56 9,7 C 92 % 1024,2 hPa 0,0 l/m 0,0 km/h (0 Bft) S 171 2 min 0,000 mm 0,6 UV-I 280 W/m 8,5 C 9,7 C 1,6 km/h (1 Bft) 100,00 %
23.09.2016 08:58 9,8 C 91 % 1024,3 hPa 0,0 l/m 0,0 km/h (0 Bft) S 171 2 min 0,000 mm 0,6 UV-I 288 W/m 8,4 C 9,8 C 0,0 km/h (0 Bft) 100,00 %
23.09.2016 09:00 9,9 C 90 % 1024,2 hPa 0,0 l/m 0,1 km/h (0 Bft) S 171 2 min 0,077 mm 0,7 UV-I 299 W/m 8,3 C 9,9 C 1,6 km/h (1 Bft) 100,00 %
23.09.2016 09:02 9,9 C 90 % 1024,3 hPa 0,0 l/m 0,2 km/h (0 Bft) S 171 2 min 0,000 mm 0,7 UV-I 305 W/m 8,3 C 9,9 C 1,6 km/h (1 Bft) 100,00 %
23.09.2016 09:04 10,0 C 89 % 1024,3 hPa 0,0 l/m 0,2 km/h (0 Bft) S 171 2 min 0,000 mm 0,7 UV-I 291 W/m 8,3 C 10,0 C 1,6 km/h (1 Bft) 100,00 %
23.09.2016 09:06 10,2 C 89 % 1024,3 hPa 0,0 l/m 1,9 km/h (1 Bft) S 171 2 min 0,000 mm 0,7 UV-I 246 W/m 8,5 C 10,2 C 3,2 km/h (1 Bft) 100,00 %
23.09.2016 09:08 10,2 C 88 % 1024,4 hPa 0,0 l/m 1,5 km/h (1 Bft) S 171 2 min 0,000 mm 0,7 UV-I 218 W/m 8,3 C 10,2 C 3,2 km/h (1 Bft) 97,87 %
23.09.2016 09:10 10,1 C 88 % 1024,4 hPa 0,0 l/m 1,2 km/h (1 Bft) S 171 2 min 0,000 mm 0,7 UV-I 207 W/m 8,2 C 10,1 C 3,2 km/h (1 Bft) 100,00 %
23.09.2016 09:12 10,1 C 88 % 1024,4 hPa 0,0 l/m 1,6 km/h (1 Bft) S 171 2 min 0,000 mm 0,7 UV-I 214 W/m 8,2 C 10,1 C 3,2 km/h (1 Bft) 100,00 %
23.09.2016 09:14 10,1 C 88 % 1024,5 hPa 0,0 l/m 2,5 km/h (1 Bft) S 171 2 min 0,000 mm 0,8 UV-I 284 W/m 8,2 C 10,1 C 3,2 km/h (1 Bft) 100,00 %
23.09.2016 09:16 10,1 C 88 % 1024,5 hPa 0,0 l/m 2,3 km/h (1 Bft) S 171 2 min 0,000 mm 0,8 UV-I 299 W/m 8,2 C 10,1 C 3,2 km/h (1 Bft) 100,00 %
23.09.2016 09:18 10,1 C 89 % 1024,6 hPa 0,0 l/m 1,9 km/h (1 Bft) S 171 2 min 0,000 mm 0,9 UV-I 290 W/m 8,4 C 10,1 C 3,2 km/h (1 Bft) 100,00 %
23.09.2016 09:20 10,2 C 88 % 1024,6 hPa 0,0 l/m 0,2 km/h (0 Bft) S 171 2 min 0,000 mm 0,9 UV-I 294 W/m 8,3 C 10,2 C 1,6 km/h (1 Bft) 100,00 %
23.09.2016 09:22 10,3 C 88 % 1024,6 hPa 0,0 l/m 0,2 km/h (0 Bft) S 171 2 min 0,000 mm 0,9 UV-I 307 W/m 8,4 C 10,3 C 1,6 km/h (1 Bft) 100,00 %
23.09.2016 09:24 10,4 C 89 % 1024,6 hPa 0,0 l/m 0,3 km/h (0 Bft) S 171 2 min 0,000 mm 1,0 UV-I 332 W/m 8,7 C 10,4 C 1,6 km/h (1 Bft) 100,00 %
23.09.2016 09:26 10,6 C 88 % 1024,6 hPa 0,0 l/m 1,6 km/h (1 Bft) S 171 2 min 0,000 mm 1,0 UV-I 344 W/m 8,7 C 10,6 C 3,2 km/h (1 Bft) 100,00 %
23.09.2016 09:28 10,7 C 88 % 1024,7 hPa 0,0 l/m 1,5 km/h (1 Bft) S 171 2 min 0,000 mm 1,0 UV-I 352 W/m 8,8 C 10,7 C 3,2 km/h (1 Bft) 100,00 %
23.09.2016 09:30 10,8 C 88 % 1024,6 hPa 0,0 l/m 2,3 km/h (1 Bft) O-SO 123 2 min 0,000 mm 1,1 UV-I 354 W/m 8,9 C 10,8 C 4,8 km/h (1 Bft) 100,00 %
23.09.2016 09:32 10,9 C 87 % 1024,7 hPa 0,0 l/m 1,9 km/h (1 Bft) O-SO 123 2 min 0,000 mm 1,1 UV-I 354 W/m 8,8 C 10,9 C 3,2 km/h (1 Bft) 97,37 %
23.09.2016 09:34 11,1 C 88 % 1024,7 hPa 0,0 l/m 1,0 km/h (0 Bft) O-SO 117 2 min 0,000 mm 1,1 UV-I 346 W/m 9,2 C 11,1 C 3,2 km/h (1 Bft) 100,00 %
23.09.2016 09:36 11,1 C 87 % 1024,6 hPa 0,0 l/m 2,0 km/h (1 Bft) O-SO 117 2 min 0,000 mm 1,2 UV-I 386 W/m 9,0 C 11,1 C 3,2 km/h (1 Bft) 100,00 %
23.09.2016 09:38 11,1 C 86 % 1024,7 hPa 0,0 l/m 0,1 km/h (0 Bft) O-SO 117 2 min 0,000 mm 1,2 UV-I 409 W/m 8,8 C 11,1 C 1,6 km/h (1 Bft) 97,87 %
23.09.2016 09:40 11,3 C 88 % 1024,7 hPa 0,0 l/m 0,3 km/h (0 Bft) O-SO 117 2 min 0,000 mm 1,3 UV-I 424 W/m 9,4 C 11,3 C 1,6 km/h (1 Bft) 100,00 %
23.09.2016 09:42 11,5 C 88 % 1024,7 hPa 0,0 l/m 0,5 km/h (0 Bft) O-SO 117 2 min 0,000 mm 1,3 UV-I 428 W/m 9,6 C 11,5 C 1,6 km/h (1 Bft) 100,00 %
23.09.2016 09:44 11,4 C 87 % 1024,7 hPa 0,0 l/m 1,0 km/h (0 Bft) NO 53 2 min 0,000 mm 1,3 UV-I 405 W/m 9,3 C 11,4 C 3,2 km/h (1 Bft) 100,00 %
23.09.2016 09:46 11,4 C 88 % 1024,7 hPa 0,0 l/m 0,4 km/h (0 Bft) NO 53 2 min 0,000 mm 1,3 UV-I 383 W/m 9,5 C 11,4 C 1,6 km/h (1 Bft) 100,00 %
23.09.2016 09:48 11,6 C 88 % 1024,7 hPa 0,0 l/m 1,1 km/h (1 Bft) NO 53 2 min 0,000 mm 1,3 UV-I 400 W/m 9,7 C 11,6 C 4,8 km/h (1 Bft) 100,00 %
23.09.2016 09:50 11,6 C 87 % 1024,7 hPa 0,0 l/m 2,3 km/h (1 Bft) NO 53 2 min 0,000 mm 1,3 UV-I 415 W/m 9,5 C 11,6 C 4,8 km/h (1 Bft) 95,74 %
23.09.2016 09:52 11,8 C 89 % 1024,7 hPa 0,0 l/m 1,0 km/h (0 Bft) NO 53 2 min 0,000 mm 1,4 UV-I 427 W/m 10,0 C 11,8 C 3,2 km/h (1 Bft) 100,00 %
23.09.2016 09:54 11,9 C 87 % 1024,8 hPa 0,0 l/m 1,0 km/h (0 Bft) NO 53 2 min 0,000 mm 1,4 UV-I 435 W/m 9,8 C 11,9 C 3,2 km/h (1 Bft) 98,00 %
23.09.2016 09:56 11,8 C 86 % 1024,8 hPa 0,0 l/m 0,1 km/h (0 Bft) NO 53 2 min 0,000 mm 1,4 UV-I 401 W/m 9,5 C 11,8 C 1,6 km/h (1 Bft) 100,00 %
23.09.2016 09:58 11,8 C 86 % 1024,8 hPa 0,0 l/m 0,5 km/h (0 Bft) NO 53 2 min 0,000 mm 1,3 UV-I 346 W/m 9,5 C 11,8 C 1,6 km/h (1 Bft) 100,00 %
23.09.2016 10:00 11,8 C 86 % 1024,8 hPa 0,0 l/m 0,1 km/h (0 Bft) NO 53 2 min 0,152 mm 1,4 UV-I 366 W/m 9,5 C 11,8 C 1,6 km/h (1 Bft) 95,74 %
23.09.2016 10:02 12,0 C 87 % 1024,8 hPa 0,0 l/m 0,4 km/h (0 Bft) NO 53 2 min 0,000 mm 1,5 UV-I 406 W/m 9,9 C 12,0 C 1,6 km/h (1 Bft) 100,00 %
23.09.2016 10:04 11,9 C 86 % 1024,7 hPa 0,0 l/m 0,6 km/h (0 Bft) NO 53 2 min 0,000 mm 1,5 UV-I 398 W/m 9,6 C 11,9 C 1,6 km/h (1 Bft) 100,00 %
23.09.2016 10:06 12,1 C 87 % 1024,8 hPa 0,0 l/m 0,9 km/h (0 Bft) NO 53 2 min 0,000 mm 1,5 UV-I 371 W/m 10,0 C 12,1 C 3,2 km/h (1 Bft) 100,00 %
23.09.2016 10:08 12,1 C 86 % 1024,8 hPa 0,0 l/m 1,6 km/h (1 Bft) NO 40 2 min 0,000 mm 1,5 UV-I 369 W/m 9,8 C 12,1 C 3,2 km/h (1 Bft) 97,37 %
23.09.2016 10:10 12,2 C 85 % 1024,8 hPa 0,0 l/m 2,6 km/h (1 Bft) NO 40 2 min 0,000 mm 1,5 UV-I 372 W/m 9,8 C 12,2 C 4,8 km/h (1 Bft) 98,00 %
23.09.2016 10:12 12,2 C 85 % 1024,8 hPa 0,0 l/m 1,7 km/h (1 Bft) NO 40 2 min 0,000 mm 1,5 UV-I 392 W/m 9,8 C 12,2 C 3,2 km/h (1 Bft) 97,87 %
23.09.2016 10:14 12,3 C 85 % 1024,8 hPa 0,0 l/m 1,1 km/h (1 Bft) NO 40 2 min 0,000 mm 1,6 UV-I 404 W/m 9,9 C 12,3 C 3,2 km/h (1 Bft) 95,74 %
23.09.2016 10:16 12,5 C 86 % 1024,8 hPa 0,0 l/m 1,9 km/h (1 Bft) NO 40 2 min 0,000 mm 1,6 UV-I 419 W/m 10,2 C 12,5 C 4,8 km/h (1 Bft) 92,00 %
23.09.2016 10:18 12,7 C 85 % 1024,8 hPa 0,0 l/m 3,7 km/h (1 Bft) NO 40 2 min 0,000 mm 1,7 UV-I 425 W/m 10,2 C 12,7 C 4,8 km/h (1 Bft) 97,87 %
23.09.2016 10:20 12,7 C 85 % 1024,8 hPa 0,0 l/m 2,7 km/h (1 Bft) NO 40 2 min 0,000 mm 1,7 UV-I 427 W/m 10,2 C 12,7 C 4,8 km/h (1 Bft) 97,37 %
23.09.2016 10:22 12,8 C 86 % 1024,9 hPa 0,0 l/m 1,3 km/h (1 Bft) NO 40 2 min 0,000 mm 1,8 UV-I 452 W/m 10,5 C 12,8 C 3,2 km/h (1 Bft) 94,00 %
23.09.2016 10:24 12,9 C 85 % 1024,9 hPa 0,0 l/m 0,5 km/h (0 Bft) NO 40 2 min 0,000 mm 1,8 UV-I 458 W/m 10,4 C 12,9 C 3,2 km/h (1 Bft) 96,00 %
23.09.2016 10:26 12,8 C 84 % 1024,9 hPa 0,0 l/m 0,5 km/h (0 Bft) NO 40 2 min 0,000 mm 1,8 UV-I 460 W/m 10,2 C 12,8 C 1,6 km/h (1 Bft) 97,56 %
23.09.2016 10:28 12,8 C 85 % 1025,0 hPa 0,0 l/m 1,8 km/h (1 Bft) NO 40 2 min 0,000 mm 1,8 UV-I 453 W/m 10,3 C 12,8 C 3,2 km/h (1 Bft) 95,74 %
23.09.2016 10:30 12,8 C 85 % 1025,0 hPa 0,0 l/m 1,6 km/h (1 Bft) N 9 2 min 0,000 mm 1,9 UV-I 445 W/m 10,3 C 12,8 C 3,2 km/h (1 Bft) 97,92 %
23.09.2016 10:32 12,8 C 84 % 1025,0 hPa 0,0 l/m 1,6 km/h (1 Bft) N-NW 342 2 min 0,000 mm 1,9 UV-I 459 W/m 10,2 C 12,8 C 3,2 km/h (1 Bft) 93,62 %
23.09.2016 10:34 12,9 C 84 % 1025,0 hPa 0,0 l/m 2,3 km/h (1 Bft) NW 325 2 min 0,000 mm 1,9 UV-I 449 W/m 10,3 C 12,9 C 4,8 km/h (1 Bft) 98,11 %
23.09.2016 10:36 12,9 C 83 % 1025,0 hPa 0,0 l/m 2,5 km/h (1 Bft) NW 325 2 min 0,000 mm 2,0 UV-I 485 W/m 10,1 C 12,9 C 3,2 km/h (1 Bft) 100,00 %
23.09.2016 10:38 12,8 C 83 % 1025,0 hPa 0,0 l/m 1,0 km/h (0 Bft) NW 325 2 min 0,000 mm 2,0 UV-I 499 W/m 10,0 C 12,8 C 3,2 km/h (1 Bft) 100,00 %
23.09.2016 10:40 12,8 C 83 % 1025,0 hPa 0,0 l/m 1,6 km/h (1 Bft) NW 324 2 min 0,000 mm 2,0 UV-I 461 W/m 10,0 C 12,8 C 4,8 km/h (1 Bft) 100,00 %
23.09.2016 10:42 12,9 C 83 % 1025,1 hPa 0,0 l/m 0,8 km/h (0 Bft) NW 324 2 min 0,000 mm 2,0 UV-I 486 W/m 10,1 C 12,9 C 3,2 km/h (1 Bft) 96,00 %
23.09.2016 10:44 13,2 C 84 % 1025,1 hPa 0,0 l/m 3,0 km/h (1 Bft) NO 40 2 min 0,000 mm 2,1 UV-I 483 W/m 10,6 C 13,2 C 6,4 km/h (2 Bft) 100,00 %
23.09.2016 10:46 13,2 C 81 % 1025,0 hPa 0,0 l/m 2,0 km/h (1 Bft) O-NO 57 2 min 0,000 mm 2,0 UV-I 461 W/m 10,0 C 13,2 C 4,8 km/h (1 Bft) 97,37 %
23.09.2016 10:48 13,2 C 82 % 1025,0 hPa 0,0 l/m 1,0 km/h (0 Bft) NO 51 2 min 0,000 mm 2,1 UV-I 490 W/m 10,2 C 13,2 C 3,2 km/h (1 Bft) 100,00 %
23.09.2016 10:50 13,4 C 83 % 1025,1 hPa 0,0 l/m 0,8 km/h (0 Bft) NO 46 2 min 0,000 mm 2,2 UV-I 516 W/m 10,6 C 13,4 C 1,6 km/h (1 Bft) 100,00 %
23.09.2016 10:52 13,7 C 81 % 1025,1 hPa 0,0 l/m 1,5 km/h (1 Bft) NO 46 2 min 0,000 mm 2,2 UV-I 543 W/m 10,5 C 13,7 C 3,2 km/h (1 Bft) 100,00 %
23.09.2016 10:54 13,9 C 82 % 1025,0 hPa 0,0 l/m 0,2 km/h (0 Bft) NO 46 2 min 0,000 mm 2,3 UV-I 552 W/m 10,9 C 13,9 C 1,6 km/h (1 Bft) 100,00 %
23.09.2016 10:56 14,1 C 84 % 1025,0 hPa 0,0 l/m 0,5 km/h (0 Bft) NO 45 2 min 0,000 mm 2,4 UV-I 571 W/m 11,4 C 14,1 C 1,6 km/h (1 Bft) 100,00 %
23.09.2016 10:58 14,3 C 80 % 1025,0 hPa 0,0 l/m 2,8 km/h (1 Bft) NO 39 2 min 0,000 mm 2,4 UV-I 568 W/m 10,9 C 14,3 C 4,8 km/h (1 Bft) 100,00 %
23.09.2016 11:00 14,1 C 81 % 1025,0 hPa 0,0 l/m 1,6 km/h (1 Bft) NO 34 2 min 0,229 mm 2,4 UV-I 567 W/m 10,9 C 14,1 C 3,2 km/h (1 Bft) 100,00 %
23.09.2016 11:02 14,1 C 80 % 1025,0 hPa 0,0 l/m 1,6 km/h (1 Bft) N-NO 19 2 min 0,000 mm 2,4 UV-I 561 W/m 10,7 C 14,1 C 4,8 km/h (1 Bft) 100,00 %
23.09.2016 11:04 14,1 C 81 % 1024,9 hPa 0,0 l/m 1,4 km/h (1 Bft) N 5 2 min 0,000 mm 2,4 UV-I 560 W/m 10,9 C 14,1 C 4,8 km/h (1 Bft) 100,00 %
23.09.2016 11:06 14,1 C 82 % 1024,9 hPa 0,0 l/m 2,0 km/h (1 Bft) N-NO 25 2 min 0,000 mm 2,4 UV-I 536 W/m 11,1 C 14,1 C 4,8 km/h (1 Bft) 97,56 %
23.09.2016 11:08 14,2 C 78 % 1025,0 hPa 0,0 l/m 1,9 km/h (1 Bft) NO 34 2 min 0,000 mm 2,4 UV-I 539 W/m 10,4 C 14,2 C 4,8 km/h (1 Bft) 97,14 %
23.09.2016 11:10 14,3 C 82 % 1025,0 hPa 0,0 l/m 1,9 km/h (1 Bft) N-NW 340 2 min 0,000 mm 2,5 UV-I 540 W/m 11,3 C 14,3 C 4,8 km/h (1 Bft) 97,87 %
23.09.2016 11:12 14,4 C 80 % 1025,0 hPa 0,0 l/m 3,9 km/h (1 Bft) NO 41 2 min 0,000 mm 2,6 UV-I 582 W/m 11,0 C 14,4 C 6,4 km/h (2 Bft) 100,00 %
23.09.2016 11:14 14,6 C 78 % 1025,0 hPa 0,0 l/m 3,5 km/h (1 Bft) NO 40 2 min 0,000 mm 2,6 UV-I 585 W/m 10,8 C 14,6 C 4,8 km/h (1 Bft) 97,87 %
23.09.2016 11:16 14,6 C 76 % 1025,0 hPa 0,0 l/m 3,1 km/h (1 Bft) NO 37 2 min 0,000 mm 2,6 UV-I 586 W/m 10,4 C 14,6 C 4,8 km/h (1 Bft) 100,00 %
23.09.2016 11:18 14,3 C 76 % 1025,0 hPa 0,0 l/m 0,4 km/h (0 Bft) NO 37 2 min 0,000 mm 2,7 UV-I 590 W/m 10,1 C 14,3 C 1,6 km/h (1 Bft) 100,00 %
23.09.2016 11:20 14,2 C 77 % 1025,0 hPa 0,0 l/m 0,3 km/h (0 Bft) NO 37 2 min 0,000 mm 2,7 UV-I 591 W/m 10,2 C 14,2 C 1,6 km/h (1 Bft) 100,00 %
23.09.2016 11:22 14,3 C 78 % 1025,0 hPa 0,0 l/m 0,8 km/h (0 Bft) NO 37 2 min 0,000 mm 2,7 UV-I 591 W/m 10,5 C 14,3 C 3,2 km/h (1 Bft) 100,00 %
23.09.2016 11:24 14,6 C 82 % 1025,0 hPa 0,0 l/m 4,0 km/h (1 Bft) N-NO 32 2 min 0,000 mm 2,8 UV-I 591 W/m 11,6 C 14,6 C 6,4 km/h (2 Bft) 98,00 %
23.09.2016 11:26 14,8 C 77 % 1025,0 hPa 0,0 l/m 1,9 km/h (1 Bft) N-NO 17 2 min 0,000 mm 2,8 UV-I 588 W/m 10,8 C 14,8 C 4,8 km/h (1 Bft) 100,00 %
23.09.2016 11:28 15,1 C 80 % 1025,0 hPa 0,0 l/m 2,4 km/h (1 Bft) N-NO 19 2 min 0,000 mm 2,8 UV-I 581 W/m 11,7 C 15,1 C 4,8 km/h (1 Bft) 95,74 %
23.09.2016 11:30 15,2 C 77 % 1025,0 hPa 0,0 l/m 2,2 km/h (1 Bft) N-NO 17 2 min 0,000 mm 2,8 UV-I 596 W/m 11,2 C 15,2 C 4,8 km/h (1 Bft) 100,00 %
23.09.2016 11:32 15,1 C 76 % 1025,0 hPa 0,0 l/m 2,7 km/h (1 Bft) N 355 2 min 0,000 mm 2,9 UV-I 603 W/m 10,9 C 15,1 C 4,8 km/h (1 Bft) 97,37 %
23.09.2016 11:34 15,1 C 76 % 1024,9 hPa 0,0 l/m 2,0 km/h (1 Bft) N 355 2 min 0,000 mm 2,9 UV-I 607 W/m 10,9 C 15,1 C 3,2 km/h (1 Bft) 100,00 %
23.09.2016 11:36 15,1 C 77 % 1024,9 hPa 0,0 l/m 2,0 km/h (1 Bft) N-NW 346 2 min 0,000 mm 2,9 UV-I 612 W/m 11,1 C 15,1 C 4,8 km/h (1 Bft) 100,00 %
23.09.2016 11:38 15,0 C 77 % 1024,9 hPa 0,0 l/m 2,1 km/h (1 Bft) N-NW 333 2 min 0,000 mm 2,9 UV-I 616 W/m 11,0 C 15,0 C 4,8 km/h (1 Bft) 94,00 %
23.09.2016 11:40 15,2 C 77 % 1024,9 hPa 0,0 l/m 1,6 km/h (1 Bft) N-NW 327 2 min 0,000 mm 3,0 UV-I 611 W/m 11,2 C 15,2 C 3,2 km/h (1 Bft) 100,00 %
23.09.2016 11:42 15,1 C 75 % 1024,9 hPa 0,0 l/m 2,9 km/h (1 Bft) N-NW 330 2 min 0,000 mm 3,0 UV-I 587 W/m 10,7 C 15,1 C 4,8 km/h (1 Bft) 100,00 %
23.09.2016 11:44 15,2 C 77 % 1024,9 hPa 0,0 l/m 1,4 km/h (1 Bft) N-NW 338 2 min 0,000 mm 3,0 UV-I 617 W/m 11,2 C 15,2 C 3,2 km/h (1 Bft) 97,87 %
23.09.2016 11:46 15,1 C 73 % 1024,9 hPa 0,0 l/m 2,1 km/h (1 Bft) W-NW 300 2 min 0,000 mm 3,0 UV-I 623 W/m 10,3 C 15,1 C 3,2 km/h (1 Bft) 100,00 %
23.09.2016 11:48 15,1 C 74 % 1024,9 hPa 0,0 l/m 2,4 km/h (1 Bft) W-NW 293 2 min 0,000 mm 3,1 UV-I 613 W/m 10,5 C 15,1 C 4,8 km/h (1 Bft) 100,00 %
23.09.2016 11:50 15,1 C 75 % 1024,9 hPa 0,0 l/m 0,7 km/h (0 Bft) W-NW 293 2 min 0,000 mm 2,9 UV-I 565 W/m 10,7 C 15,1 C 1,6 km/h (1 Bft) 98,08 %
23.09.2016 11:52 15,2 C 74 % 1024,9 hPa 0,0 l/m 2,6 km/h (1 Bft) W-NW 300 2 min 0,000 mm 3,0 UV-I 591 W/m 10,6 C 15,2 C 4,8 km/h (1 Bft) 97,62 %
23.09.2016 11:54 15,2 C 74 % 1024,9 hPa 0,0 l/m 0,8 km/h (0 Bft) W-NW 300 2 min 0,000 mm 3,1 UV-I 614 W/m 10,6 C 15,2 C 3,2 km/h (1 Bft) 97,87 %
23.09.2016 11:56 15,2 C 73 % 1024,9 hPa 0,0 l/m 0,2 km/h (0 Bft) W-NW 300 2 min 0,000 mm 3,1 UV-I 612 W/m 10,4 C 15,2 C 1,6 km/h (1 Bft) 95,74 %
23.09.2016 11:58 15,4 C 73 % 1024,9 hPa 0,0 l/m 0,1 km/h (0 Bft) W-NW 284 2 min 0,000 mm 3,0 UV-I 580 W/m 10,6 C 15,4 C 1,6 km/h (1 Bft) 97,87 %
23.09.2016 12:00 15,6 C 73 % 1024,9 hPa 0,0 l/m 1,5 km/h (1 Bft) N-NO 31 2 min 0,304 mm 3,1 UV-I 626 W/m 10,8 C 15,6 C 4,8 km/h (1 Bft) 96,23 %
23.09.2016 12:02 15,6 C 74 % 1024,9 hPa 0,0 l/m 1,7 km/h (1 Bft) N-NO 31 2 min 0,000 mm 3,2 UV-I 632 W/m 11,0 C 15,6 C 3,2 km/h (1 Bft) 97,37 %
23.09.2016 12:04 15,8 C 72 % 1025,0 hPa 0,0 l/m 1,7 km/h (1 Bft) N 360 2 min 0,000 mm 3,2 UV-I 635 W/m 10,8 C 15,8 C 3,2 km/h (1 Bft) 96,43 %
23.09.2016 12:06 15,8 C 73 % 1025,0 hPa 0,0 l/m 2,0 km/h (1 Bft) N 360 2 min 0,000 mm 3,2 UV-I 638 W/m 11,0 C 15,8 C 3,2 km/h (1 Bft) 97,14 %
23.09.2016 12:08 15,9 C 75 % 1025,0 hPa 0,0 l/m 2,6 km/h (1 Bft) N-NO 26 2 min 0,000 mm 3,2 UV-I 604 W/m 11,5 C 15,9 C 4,8 km/h (1 Bft) 98,00 %
23.09.2016 12:10 15,9 C 73 % 1025,0 hPa 0,0 l/m 3,0 km/h (1 Bft) NO 36 2 min 0,000 mm 2,8 UV-I 511 W/m 11,1 C 15,9 C 6,4 km/h (2 Bft) 97,87 %
23.09.2016 12:12 16,0 C 74 % 1024,9 hPa 0,0 l/m 2,9 km/h (1 Bft) N-NO 15 2 min 0,000 mm 3,2 UV-I 644 W/m 11,4 C 16,0 C 6,4 km/h (2 Bft) 97,87 %
23.09.2016 12:14 16,1 C 73 % 1024,9 hPa 0,0 l/m 3,2 km/h (1 Bft) N-NW 342 2 min 0,000 mm 3,1 UV-I 552 W/m 11,3 C 16,1 C 8,0 km/h (2 Bft) 94,00 %
23.09.2016 12:16 16,1 C 74 % 1025,0 hPa 0,0 l/m 2,5 km/h (1 Bft) NW 323 2 min 0,000 mm 3,1 UV-I 581 W/m 11,5 C 16,1 C 6,4 km/h (2 Bft) 95,74 %
23.09.2016 12:18 16,1 C 71 % 1024,9 hPa 0,0 l/m 1,8 km/h (1 Bft) N-NW 327 2 min 0,000 mm 3,3 UV-I 642 W/m 10,8 C 16,1 C 4,8 km/h (1 Bft) 100,00 %
23.09.2016 12:20 16,1 C 70 % 1024,9 hPa 0,0 l/m 2,7 km/h (1 Bft) W-NW 302 2 min 0,000 mm 3,3 UV-I 646 W/m 10,6 C 16,1 C 4,8 km/h (1 Bft) 100,00 %
23.09.2016 12:22 15,9 C 71 % 1024,9 hPa 0,0 l/m 1,2 km/h (1 Bft) N-NW 331 2 min 0,000 mm 3,3 UV-I 650 W/m 10,6 C 15,9 C 3,2 km/h (1 Bft) 100,00 %
23.09.2016 12:24 15,9 C 72 % 1025,0 hPa 0,0 l/m 1,0 km/h (0 Bft) N-NW 331 2 min 0,000 mm 3,3 UV-I 649 W/m 10,9 C 15,9 C 3,2 km/h (1 Bft) 100,00 %
23.09.2016 12:26 16,0 C 73 % 1024,9 hPa 0,0 l/m 2,2 km/h (1 Bft) W-NW 288 2 min 0,000 mm 3,3 UV-I 653 W/m 11,2 C 16,0 C 4,8 km/h (1 Bft) 100,00 %
23.09.2016 12:28 16,1 C 73 % 1024,9 hPa 0,0 l/m 1,0 km/h (0 Bft) W-NW 288 2 min 0,000 mm 3,3 UV-I 617 W/m 11,3 C 16,1 C 3,2 km/h (1 Bft) 100,00 %
23.09.2016 12:30 16,3 C 74 % 1024,9 hPa 0,0 l/m 1,5 km/h (1 Bft) N 360 2 min 0,000 mm 3,3 UV-I 628 W/m 11,7 C 16,3 C 3,2 km/h (1 Bft) 100,00 %
23.09.2016 12:32 16,4 C 72 % 1024,9 hPa 0,0 l/m 1,4 km/h (1 Bft) NO 49 2 min 0,000 mm 3,3 UV-I 634 W/m 11,3 C 16,4 C 4,8 km/h (1 Bft) 97,44 %
23.09.2016 12:34 16,5 C 72 % 1024,9 hPa 0,0 l/m 3,0 km/h (1 Bft) N-NO 32 2 min 0,000 mm 3,4 UV-I 650 W/m 11,4 C 16,5 C 4,8 km/h (1 Bft) 100,00 %
23.09.2016 12:36 16,3 C 70 % 1024,9 hPa 0,0 l/m 1,8 km/h (1 Bft) O 98 2 min 0,000 mm 3,4 UV-I 647 W/m 10,8 C 16,3 C 3,2 km/h (1 Bft) 100,00 %
23.09.2016 12:38 16,4 C 73 % 1024,9 hPa 0,0 l/m 5,8 km/h (2 Bft) N-NO 24 2 min 0,000 mm 3,3 UV-I 639 W/m 11,5 C 16,4 C 8,0 km/h (2 Bft) 100,00 %
23.09.2016 12:40 16,8 C 75 % 1024,9 hPa 0,0 l/m 6,1 km/h (2 Bft) N-NO 25 2 min 0,000 mm 3,3 UV-I 645 W/m 12,3 C 16,8 C 9,7 km/h (2 Bft) 100,00 %
23.09.2016 12:42 16,9 C 72 % 1024,9 hPa 0,0 l/m 5,3 km/h (1 Bft) NO 55 2 min 0,000 mm 3,4 UV-I 646 W/m 11,8 C 16,9 C 8,0 km/h (2 Bft) 100,00 %
23.09.2016 12:44 16,8 C 69 % 1024,9 hPa 0,0 l/m 3,3 km/h (1 Bft) O-NO 59 2 min 0,000 mm 2,8 UV-I 646 W/m 11,1 C 16,8 C 6,4 km/h (2 Bft) 100,00 %
23.09.2016 12:46 16,8 C 70 % 1024,9 hPa 0,0 l/m 1,7 km/h (1 Bft) NO 48 2 min 0,000 mm 3,4 UV-I 638 W/m 11,3 C 16,8 C 4,8 km/h (1 Bft) 100,00 %
23.09.2016 12:48 16,8 C 68 % 1024,9 hPa 0,0 l/m 1,0 km/h (0 Bft) NO 48 2 min 0,000 mm 3,4 UV-I 655 W/m 10,9 C 16,8 C 3,2 km/h (1 Bft) 100,00 %
23.09.2016 12:50 16,7 C 70 % 1024,8 hPa 0,0 l/m 0,6 km/h (0 Bft) N-NO 24 2 min 0,000 mm 3,4 UV-I 669 W/m 11,2 C 16,7 C 1,6 km/h (1 Bft) 100,00 %
23.09.2016 12:52 16,9 C 70 % 1024,9 hPa 0,0 l/m 0,3 km/h (0 Bft) N-NO 25 2 min 0,000 mm 3,2 UV-I 626 W/m 11,4 C 16,9 C 1,6 km/h (1 Bft) 100,00 %
23.09.2016 12:54 17,0 C 72 % 1024,9 hPa 0,0 l/m 2,7 km/h (1 Bft) N-NO 25 2 min 0,000 mm 3,1 UV-I 600 W/m 11,9 C 17,0 C 8,0 km/h (2 Bft) 100,00 %
23.09.2016 12:56 17,1 C 70 % 1024,9 hPa 0,0 l/m 5,2 km/h (1 Bft) N-NO 24 2 min 0,000 mm 3,3 UV-I 650 W/m 11,6 C 17,1 C 8,0 km/h (2 Bft) 100,00 %
23.09.2016 12:58 17,2 C 71 % 1024,9 hPa 0,0 l/m 4,1 km/h (1 Bft) NO 45 2 min 0,000 mm 3,3 UV-I 655 W/m 11,9 C 17,2 C 6,4 km/h (2 Bft) 100,00 %
23.09.2016 13:00 17,2 C 69 % 1024,9 hPa 0,0 l/m 2,2 km/h (1 Bft) NW 309 2 min 0,000 mm 3,3 UV-I 645 W/m 11,5 C 17,2 C 6,4 km/h (2 Bft) 100,00 %
23.09.2016 13:02 17,1 C 68 % 1024,9 hPa 0,0 l/m 2,2 km/h (1 Bft) N 355 2 min 0,331 mm 3,2 UV-I 601 W/m 11,1 C 17,1 C 4,8 km/h (1 Bft) 100,00 %
23.09.2016 13:04 17,0 C 68 % 1024,9 hPa 0,0 l/m 1,4 km/h (1 Bft) N-NW 338 2 min 0,000 mm 3,3 UV-I 652 W/m 11,0 C 17,0 C 3,2 km/h (1 Bft) 100,00 %
23.09.2016 13:06 17,2 C 68 % 1024,9 hPa 0,0 l/m 3,9 km/h (1 Bft) N-NO 33 2 min 0,000 mm 3,4 UV-I 666 W/m 11,2 C 17,2 C 6,4 km/h (2 Bft) 100,00 %
23.09.2016 13:08 17,3 C 69 % 1024,9 hPa 0,0 l/m 4,9 km/h (1 Bft) N-NO 22 2 min 0,000 mm 3,4 UV-I 664 W/m 11,6 C 17,3 C 6,4 km/h (2 Bft) 100,00 %
23.09.2016 13:10 17,4 C 68 % 1024,9 hPa 0,0 l/m 4,4 km/h (1 Bft) NO 40 2 min 0,000 mm 3,0 UV-I 635 W/m 11,4 C 17,4 C 8,0 km/h (2 Bft) 100,00 %
23.09.2016 13:12 17,3 C 66 % 1024,9 hPa 0,0 l/m 1,7 km/h (1 Bft) N-NO 21 2 min 0,000 mm 3,3 UV-I 620 W/m 10,9 C 17,3 C 3,2 km/h (1 Bft) 97,87 %
23.09.2016 13:14 17,4 C 68 % 1024,9 hPa 0,0 l/m 1,3 km/h (1 Bft) N-NW 342 2 min 0,000 mm 3,2 UV-I 616 W/m 11,4 C 17,4 C 3,2 km/h (1 Bft) 100,00 %
23.09.2016 13:16 17,3 C 65 % 1024,9 hPa 0,0 l/m 1,6 km/h (1 Bft) N-NW 337 2 min 0,000 mm 3,3 UV-I 620 W/m 10,7 C 17,3 C 4,8 km/h (1 Bft) 100,00 %
23.09.2016 13:18 17,3 C 65 % 1024,9 hPa 0,0 l/m 1,4 km/h (1 Bft) N-NW 331 2 min 0,000 mm 3,3 UV-I 644 W/m 10,7 C 17,3 C 3,2 km/h (1 Bft) 100,00 %
23.09.2016 13:20 17,3 C 63 % 1024,9 hPa 0,0 l/m 2,4 km/h (1 Bft) W-NW 299 2 min 0,000 mm 3,0 UV-I 650 W/m 10,2 C 17,3 C 4,8 km/h (1 Bft) 100,00 %
23.09.2016 13:22 17,4 C 65 % 1024,9 hPa 0,0 l/m 2,2 km/h (1 Bft) NW 317 2 min 0,000 mm 3,3 UV-I 647 W/m 10,8 C 17,4 C 4,8 km/h (1 Bft) 100,00 %
23.09.2016 13:24 17,4 C 61 % 1024,9 hPa 0,0 l/m 2,5 km/h (1 Bft) NW 317 2 min 0,000 mm 3,2 UV-I 640 W/m 9,8 C 17,4 C 3,2 km/h (1 Bft) 97,87 %
23.09.2016 13:26 17,3 C 62 % 1024,8 hPa 0,0 l/m 2,9 km/h (1 Bft) W 271 2 min 0,000 mm 3,2 UV-I 620 W/m 9,9 C 17,3 C 6,4 km/h (2 Bft) 100,00 %
23.09.2016 13:28 17,4 C 63 % 1024,8 hPa 0,0 l/m 6,5 km/h (2 Bft) W 269 2 min 0,000 mm 3,2 UV-I 615 W/m 10,3 C 17,4 C 11,3 km/h (2 Bft) 97,87 %
23.09.2016 13:30 17,6 C 62 % 1024,8 hPa 0,0 l/m 6,7 km/h (2 Bft) W-SW 252 2 min 0,000 mm 3,2 UV-I 613 W/m 10,2 C 17,5 C 9,7 km/h (2 Bft) 98,11 %
23.09.2016 13:32 17,6 C 61 % 1024,8 hPa 0,0 l/m 4,5 km/h (1 Bft) W-SW 252 2 min 0,000 mm 3,2 UV-I 625 W/m 10,0 C 17,6 C 6,4 km/h (2 Bft) 95,74 %
23.09.2016 13:34 17,7 C 62 % 1024,8 hPa 0,0 l/m 4,7 km/h (1 Bft) NW 319 2 min 0,000 mm 3,2 UV-I 640 W/m 10,3 C 17,7 C 9,7 km/h (2 Bft) 100,00 %
23.09.2016 13:36 17,8 C 65 % 1024,8 hPa 0,0 l/m 5,4 km/h (1 Bft) N 11 2 min 0,000 mm 3,2 UV-I 641 W/m 11,1 C 17,8 C 14,5 km/h (3 Bft) 100,00 %
23.09.2016 13:38 17,9 C 61 % 1024,8 hPa 0,0 l/m 0,8 km/h (0 Bft) N 9 2 min 0,000 mm 3,2 UV-I 628 W/m 10,3 C 17,9 C 3,2 km/h (1 Bft) 100,00 %
23.09.2016 13:40 18,0 C 65 % 1024,8 hPa 0,0 l/m 4,9 km/h (1 Bft) NO 43 2 min 0,000 mm 3,2 UV-I 617 W/m 11,3 C 18,0 C 8,0 km/h (2 Bft) 100,00 %
23.09.2016 13:42 18,1 C 60 % 1024,8 hPa 0,0 l/m 3,8 km/h (1 Bft) N-NO 33 2 min 0,000 mm 3,2 UV-I 618 W/m 10,2 C 18,1 C 6,4 km/h (2 Bft) 96,00 %
23.09.2016 13:44 18,2 C 65 % 1024,7 hPa 0,0 l/m 3,5 km/h (1 Bft) N 355 2 min 0,000 mm 3,1 UV-I 618 W/m 11,5 C 18,2 C 6,4 km/h (2 Bft) 96,00 %
23.09.2016 13:46 18,2 C 63 % 1024,7 hPa 0,0 l/m 3,5 km/h (1 Bft) N 10 2 min 0,000 mm 3,0 UV-I 592 W/m 11,0 C 18,2 C 8,0 km/h (2 Bft) 97,44 %
23.09.2016 13:48 18,2 C 61 % 1024,7 hPa 0,0 l/m 4,0 km/h (1 Bft) N-NO 18 2 min 0,000 mm 3,0 UV-I 582 W/m 10,6 C 18,2 C 8,0 km/h (2 Bft) 97,87 %
23.09.2016 13:50 17,9 C 60 % 1024,7 hPa 0,0 l/m 1,0 km/h (0 Bft) N 5 2 min 0,000 mm 3,0 UV-I 590 W/m 10,0 C 17,9 C 3,2 km/h (1 Bft) 96,23 %
23.09.2016 13:52 17,9 C 62 % 1024,7 hPa 0,0 l/m 0,5 km/h (0 Bft) N 355 2 min 0,000 mm 3,1 UV-I 612 W/m 10,5 C 17,9 C 1,6 km/h (1 Bft) 95,74 %
23.09.2016 13:54 18,0 C 59 % 1024,7 hPa 0,0 l/m 2,8 km/h (1 Bft) N-NW 342 2 min 0,000 mm 3,1 UV-I 620 W/m 9,9 C 18,0 C 4,8 km/h (1 Bft) 98,11 %
23.09.2016 13:56 17,9 C 60 % 1024,7 hPa 0,0 l/m 2,1 km/h (1 Bft) N 355 2 min 0,000 mm 3,0 UV-I 606 W/m 10,0 C 17,9 C 4,8 km/h (1 Bft) 97,37 %
23.09.2016 13:58 18,1 C 64 % 1024,6 hPa 0,0 l/m 3,0 km/h (1 Bft) O-NO 62 2 min 0,000 mm 3,0 UV-I 619 W/m 11,2 C 18,1 C 4,8 km/h (1 Bft) 98,00 %
23.09.2016 14:00 18,2 C 59 % 1024,6 hPa 0,0 l/m 3,2 km/h (1 Bft) NO 43 2 min 0,000 mm 3,1 UV-I 656 W/m 10,1 C 18,2 C 4,8 km/h (1 Bft) 97,73 %
23.09.2016 14:02 18,4 C 61 % 1024,6 hPa 0,0 l/m 2,5 km/h (1 Bft) NO 43 2 min 0,355 mm 3,1 UV-I 659 W/m 10,7 C 18,4 C 4,8 km/h (1 Bft) 96,43 %
23.09.2016 14:04 18,6 C 60 % 1024,6 hPa 0,0 l/m 1,5 km/h (1 Bft) W-NW 296 2 min 0,000 mm 3,0 UV-I 646 W/m 10,7 C 18,6 C 4,8 km/h (1 Bft) 97,56 %
23.09.2016 14:06 18,7 C 60 % 1024,6 hPa 0,0 l/m 1,3 km/h (1 Bft) W 273 2 min 0,000 mm 2,9 UV-I 634 W/m 10,8 C 18,7 C 3,2 km/h (1 Bft) 97,56 %
23.09.2016 14:08 18,7 C 56 % 1024,6 hPa 0,0 l/m 0,7 km/h (0 Bft) W-NW 297 2 min 0,000 mm 3,0 UV-I 612 W/m 9,7 C 18,7 C 1,6 km/h (1 Bft) 95,74 %
23.09.2016 14:10 18,7 C 55 % 1024,6 hPa 0,0 l/m 1,1 km/h (1 Bft) N-NW 336 2 min 0,000 mm 2,9 UV-I 608 W/m 9,5 C 18,7 C 3,2 km/h (1 Bft) 98,00 %
23.09.2016 14:12 18,7 C 54 % 1024,6 hPa 0,0 l/m 3,8 km/h (1 Bft) S 188 2 min 0,000 mm 3,0 UV-I 644 W/m 9,2 C 18,7 C 6,4 km/h (2 Bft) 100,00 %
23.09.2016 14:14 18,7 C 57 % 1024,7 hPa 0,0 l/m 2,7 km/h (1 Bft) W 264 2 min 0,000 mm 2,9 UV-I 628 W/m 10,0 C 18,7 C 4,8 km/h (1 Bft) 100,00 %
23.09.2016 14:16 18,8 C 53 % 1024,6 hPa 0,0 l/m 6,3 km/h (2 Bft) S-SW 195 2 min 0,000 mm 3,0 UV-I 642 W/m 9,0 C 18,8 C 9,7 km/h (2 Bft) 100,00 %
23.09.2016 14:18 18,6 C 53 % 1024,6 hPa 0,0 l/m 2,9 km/h (1 Bft) S-SO 155 2 min 0,000 mm 3,0 UV-I 662 W/m 8,8 C 18,6 C 4,8 km/h (1 Bft) 97,87 %
23.09.2016 14:20 18,6 C 54 % 1024,6 hPa 0,0 l/m 4,5 km/h (1 Bft) S 175 2 min 0,000 mm 2,9 UV-I 661 W/m 9,1 C 18,6 C 8,0 km/h (2 Bft) 100,00 %
23.09.2016 14:22 18,5 C 53 % 1024,6 hPa 0,0 l/m 2,4 km/h (1 Bft) S 171 2 min 0,000 mm 2,8 UV-I 599 W/m 8,7 C 18,5 C 6,4 km/h (2 Bft) 100,00 %
23.09.2016 14:24 18,5 C 53 % 1024,5 hPa 0,0 l/m 2,2 km/h (1 Bft) SO 141 2 min 0,000 mm 2,7 UV-I 588 W/m 8,7 C 18,5 C 6,4 km/h (2 Bft) 100,00 %
23.09.2016 14:26 18,6 C 51 % 1024,5 hPa 0,0 l/m 4,9 km/h (1 Bft) O-SO 115 2 min 0,000 mm 2,7 UV-I 600 W/m 8,3 C 18,6 C 6,4 km/h (2 Bft) 97,87 %
23.09.2016 14:28 18,7 C 55 % 1024,5 hPa 0,0 l/m 4,2 km/h (1 Bft) NO 38 2 min 0,000 mm 2,7 UV-I 590 W/m 9,5 C 18,7 C 6,4 km/h (2 Bft) 96,00 %
23.09.2016 14:30 18,8 C 55 % 1024,5 hPa 0,0 l/m 3,5 km/h (1 Bft) NO 38 2 min 0,000 mm 2,6 UV-I 550 W/m 9,6 C 18,8 C 4,8 km/h (1 Bft) 100,00 %
23.09.2016 14:32 18,9 C 57 % 1024,4 hPa 0,0 l/m 2,6 km/h (1 Bft) NO 39 2 min 0,000 mm 2,6 UV-I 537 W/m 10,2 C 18,9 C 3,2 km/h (1 Bft) 100,00 %
23.09.2016 14:34 19,1 C 56 % 1024,5 hPa 0,0 l/m 3,9 km/h (1 Bft) N-NO 26 2 min 0,000 mm 2,5 UV-I 539 W/m 10,1 C 19,1 C 6,4 km/h (2 Bft) 97,87 %
23.09.2016 14:36 19,1 C 57 % 1024,4 hPa 0,0 l/m 1,8 km/h (1 Bft) N-NO 17 2 min 0,000 mm 2,6 UV-I 556 W/m 10,4 C 19,1 C 4,8 km/h (1 Bft) 100,00 %
23.09.2016 14:38 19,0 C 60 % 1024,4 hPa 0,0 l/m 2,4 km/h (1 Bft) W-NW 303 2 min 0,000 mm 2,5 UV-I 533 W/m 11,1 C 19,0 C 4,8 km/h (1 Bft) 100,00 %
23.09.2016 14:40 18,8 C 55 % 1024,4 hPa 0,0 l/m 1,9 km/h (1 Bft) NW 304 2 min 0,000 mm 2,5 UV-I 554 W/m 9,6 C 18,8 C 3,2 km/h (1 Bft) 100,00 %
23.09.2016 14:42 18,8 C 55 % 1024,4 hPa 0,0 l/m 0,9 km/h (0 Bft) NW 307 2 min 0,000 mm 2,5 UV-I 569 W/m 9,6 C 18,8 C 1,6 km/h (1 Bft) 100,00 %
23.09.2016 14:44 18,8 C 52 % 1024,4 hPa 0,0 l/m 3,9 km/h (1 Bft) SW 227 2 min 0,000 mm 2,4 UV-I 550 W/m 8,7 C 18,8 C 6,4 km/h (2 Bft) 100,00 %
23.09.2016 14:46 18,8 C 52 % 1024,3 hPa 0,0 l/m 2,0 km/h (1 Bft) SW 227 2 min 0,000 mm 2,4 UV-I 532 W/m 8,7 C 18,8 C 4,8 km/h (1 Bft) 100,00 %
23.09.2016 14:48 18,7 C 52 % 1024,4 hPa 0,0 l/m 3,0 km/h (1 Bft) N-NO 21 2 min 0,000 mm 2,3 UV-I 528 W/m 8,6 C 18,7 C 4,8 km/h (1 Bft) 100,00 %
23.09.2016 14:50 18,8 C 54 % 1024,4 hPa 0,0 l/m 0,4 km/h (0 Bft) N-NO 21 2 min 0,000 mm 2,3 UV-I 520 W/m 9,3 C 18,8 C 1,6 km/h (1 Bft) 97,87 %
23.09.2016 14:52 18,9 C 53 % 1024,4 hPa 0,0 l/m 3,0 km/h (1 Bft) SW 226 2 min 0,000 mm 2,4 UV-I 581 W/m 9,1 C 18,9 C 6,4 km/h (2 Bft) 100,00 %
23.09.2016 14:54 19,0 C 51 % 1024,4 hPa 0,0 l/m 4,0 km/h (1 Bft) W 280 2 min 0,000 mm 2,4 UV-I 579 W/m 8,6 C 19,0 C 6,4 km/h (2 Bft) 100,00 %
23.09.2016 14:56 19,1 C 51 % 1024,4 hPa 0,0 l/m 4,7 km/h (1 Bft) S 174 2 min 0,000 mm 2,3 UV-I 554 W/m 8,7 C 19,1 C 8,0 km/h (2 Bft) 100,00 %
23.09.2016 14:58 19,2 C 52 % 1024,4 hPa 0,0 l/m 4,9 km/h (1 Bft) W-SW 244 2 min 0,000 mm 2,2 UV-I 508 W/m 9,1 C 19,2 C 8,0 km/h (2 Bft) 100,00 %
23.09.2016 15:00 19,2 C 53 % 1024,3 hPa 0,0 l/m 7,5 km/h (2 Bft) SW 225 2 min 0,000 mm 2,2 UV-I 506 W/m 9,4 C 18,7 C 12,9 km/h (3 Bft) 100,00 %
23.09.2016 15:02 19,2 C 53 % 1024,3 hPa 0,0 l/m 5,6 km/h (1 Bft) S-SW 202 2 min 0,356 mm 2,0 UV-I 454 W/m 9,4 C 19,2 C 8,0 km/h (2 Bft) 95,83 %
23.09.2016 15:04 19,1 C 52 % 1024,3 hPa 0,0 l/m 5,8 km/h (2 Bft) S-SW 206 2 min 0,000 mm 2,1 UV-I 465 W/m 9,0 C 19,1 C 9,7 km/h (2 Bft) 100,00 %
23.09.2016 15:06 19,1 C 52 % 1024,3 hPa 0,0 l/m 3,8 km/h (1 Bft) S 178 2 min 0,000 mm 2,1 UV-I 507 W/m 9,0 C 19,1 C 8,0 km/h (2 Bft) 100,00 %
23.09.2016 15:08 19,0 C 52 % 1024,3 hPa 0,0 l/m 2,3 km/h (1 Bft) S 182 2 min 0,000 mm 2,0 UV-I 502 W/m 8,9 C 19,0 C 6,4 km/h (2 Bft) 97,87 %
23.09.2016 15:10 18,9 C 50 % 1024,3 hPa 0,0 l/m 3,5 km/h (1 Bft) S 182 2 min 0,000 mm 1,9 UV-I 433 W/m 8,2 C 18,9 C 8,0 km/h (2 Bft) 100,00 %
23.09.2016 15:12 18,8 C 50 % 1024,3 hPa 0,0 l/m 6,1 km/h (2 Bft) W-SW 244 2 min 0,000 mm 2,0 UV-I 505 W/m 8,2 C 18,8 C 11,3 km/h (2 Bft) 98,00 %
23.09.2016 15:14 18,9 C 52 % 1024,3 hPa 0,0 l/m 3,9 km/h (1 Bft) W-SW 252 2 min 0,000 mm 2,0 UV-I 490 W/m 8,8 C 18,9 C 9,7 km/h (2 Bft) 97,87 %
23.09.2016 15:16 19,0 C 50 % 1024,3 hPa 0,0 l/m 6,0 km/h (2 Bft) W-SW 255 2 min 0,000 mm 1,9 UV-I 468 W/m 8,3 C 19,0 C 9,7 km/h (2 Bft) 100,00 %
23.09.2016 15:18 18,9 C 51 % 1024,4 hPa 0,0 l/m 3,2 km/h (1 Bft) W 265 2 min 0,000 mm 1,9 UV-I 489 W/m 8,5 C 18,9 C 6,4 km/h (2 Bft) 97,87 %
23.09.2016 15:20 18,8 C 50 % 1024,4 hPa 0,0 l/m 3,4 km/h (1 Bft) W 265 2 min 0,000 mm 1,9 UV-I 476 W/m 8,2 C 18,8 C 9,7 km/h (2 Bft) 100,00 %
23.09.2016 15:22 18,8 C 51 % 1024,3 hPa 0,0 l/m 2,4 km/h (1 Bft) S-SO 157 2 min 0,000 mm 1,9 UV-I 462 W/m 8,4 C 18,8 C 6,4 km/h (2 Bft) 100,00 %
23.09.2016 15:24 19,1 C 54 % 1024,3 hPa 0,0 l/m 3,6 km/h (1 Bft) SW 215 2 min 0,000 mm 1,8 UV-I 463 W/m 9,6 C 19,1 C 8,0 km/h (2 Bft) 97,92 %
23.09.2016 15:26 19,2 C 53 % 1024,3 hPa 0,0 l/m 6,3 km/h (2 Bft) SW 217 2 min 0,000 mm 1,8 UV-I 476 W/m 9,4 C 19,2 C 9,7 km/h (2 Bft) 100,00 %
23.09.2016 15:28 19,3 C 53 % 1024,3 hPa 0,0 l/m 6,9 km/h (2 Bft) S-SW 196 2 min 0,000 mm 1,7 UV-I 418 W/m 9,5 C 19,1 C 8,0 km/h (2 Bft) 97,87 %
23.09.2016 15:30 19,1 C 51 % 1024,3 hPa 0,0 l/m 4,2 km/h (1 Bft) S 169 2 min 0,000 mm 1,6 UV-I 380 W/m 8,7 C 19,1 C 8,0 km/h (2 Bft) 100,00 %
23.09.2016 15:32 19,0 C 53 % 1024,3 hPa 0,0 l/m 5,6 km/h (1 Bft) S 190 2 min 0,000 mm 1,6 UV-I 427 W/m 9,2 C 19,0 C 14,5 km/h (3 Bft) 100,00 %
23.09.2016 15:34 19,0 C 52 % 1024,4 hPa 0,0 l/m 6,9 km/h (2 Bft) S-SW 197 2 min 0,000 mm 1,6 UV-I 424 W/m 8,9 C 18,8 C 11,3 km/h (2 Bft) 98,00 %
23.09.2016 15:36 18,9 C 51 % 1024,3 hPa 0,0 l/m 2,9 km/h (1 Bft) S-SO 160 2 min 0,000 mm 1,5 UV-I 380 W/m 8,5 C 18,9 C 8,0 km/h (2 Bft) 95,74 %
23.09.2016 15:38 18,9 C 52 % 1024,3 hPa 0,0 l/m 3,4 km/h (1 Bft) W-SW 238 2 min 0,000 mm 1,5 UV-I 377 W/m 8,8 C 18,9 C 8,0 km/h (2 Bft) 97,87 %
23.09.2016 15:40 18,8 C 52 % 1024,3 hPa 0,0 l/m 1,0 km/h (0 Bft) W-SW 250 2 min 0,000 mm 1,5 UV-I 394 W/m 8,7 C 18,8 C 4,8 km/h (1 Bft) 97,87 %
23.09.2016 15:42 18,9 C 54 % 1024,3 hPa 0,0 l/m 4,1 km/h (1 Bft) S-SW 200 2 min 0,000 mm 1,5 UV-I 393 W/m 9,4 C 18,9 C 6,4 km/h (2 Bft) 97,87 %
23.09.2016 15:44 18,9 C 51 % 1024,3 hPa 0,0 l/m 2,7 km/h (1 Bft) SW 221 2 min 0,000 mm 1,5 UV-I 425 W/m 8,5 C 18,9 C 8,0 km/h (2 Bft) 95,24 %
23.09.2016 15:46 18,9 C 52 % 1024,2 hPa 0,0 l/m 1,8 km/h (1 Bft) SW 221 2 min 0,000 mm 1,5 UV-I 408 W/m 8,8 C 18,9 C 4,8 km/h (1 Bft) 96,00 %
23.09.2016 15:48 18,9 C 52 % 1024,3 hPa 0,0 l/m 1,8 km/h (1 Bft) SW 216 2 min 0,000 mm 1,4 UV-I 428 W/m 8,8 C 18,9 C 3,2 km/h (1 Bft) 97,87 %
23.09.2016 15:50 19,1 C 54 % 1024,3 hPa 0,0 l/m 2,1 km/h (1 Bft) W-SW 250 2 min 0,000 mm 1,4 UV-I 395 W/m 9,6 C 19,1 C 6,4 km/h (2 Bft) 95,74 %
23.09.2016 15:52 19,1 C 52 % 1024,3 hPa 0,0 l/m 5,2 km/h (1 Bft) W 268 2 min 0,000 mm 1,4 UV-I 375 W/m 9,0 C 19,1 C 11,3 km/h (2 Bft) 95,74 %
23.09.2016 15:54 19,1 C 53 % 1024,2 hPa 0,0 l/m 5,2 km/h (1 Bft) W 271 2 min 0,000 mm 1,3 UV-I 361 W/m 9,3 C 19,1 C 9,7 km/h (2 Bft) 95,74 %
23.09.2016 15:56 18,9 C 52 % 1024,2 hPa 0,0 l/m 4,2 km/h (1 Bft) W 261 2 min 0,000 mm 1,3 UV-I 353 W/m 8,8 C 18,9 C 6,4 km/h (2 Bft) 95,74 %
23.09.2016 15:58 18,9 C 52 % 1024,2 hPa 0,0 l/m 1,8 km/h (1 Bft) W 268 2 min 0,000 mm 1,3 UV-I 333 W/m 8,8 C 18,9 C 4,8 km/h (1 Bft) 97,87 %
23.09.2016 16:00 18,9 C 53 % 1024,2 hPa 0,0 l/m 0,2 km/h (0 Bft) W 268 2 min 0,000 mm 1,2 UV-I 325 W/m 9,1 C 18,9 C 1,6 km/h (1 Bft) 97,87 %
23.09.2016 16:02 18,9 C 52 % 1024,2 hPa 0,0 l/m 0,6 km/h (0 Bft) W 269 2 min 0,279 mm 1,2 UV-I 316 W/m 8,8 C 18,9 C 1,6 km/h (1 Bft) 95,92 %
23.09.2016 16:04 18,9 C 53 % 1024,2 hPa 0,0 l/m 1,5 km/h (1 Bft) W 270 2 min 0,000 mm 1,1 UV-I 300 W/m 9,1 C 18,9 C 3,2 km/h (1 Bft) 97,37 %
23.09.2016 16:06 18,9 C 53 % 1024,2 hPa 0,0 l/m 1,1 km/h (1 Bft) W 275 2 min 0,000 mm 1,1 UV-I 292 W/m 9,1 C 18,9 C 3,2 km/h (1 Bft) 100,00 %
23.09.2016 16:08 18,9 C 53 % 1024,3 hPa 0,0 l/m 0,8 km/h (0 Bft) W 275 2 min 0,000 mm 1,1 UV-I 293 W/m 9,1 C 18,9 C 1,6 km/h (1 Bft) 100,00 %
23.09.2016 16:10 18,9 C 54 % 1024,2 hPa 0,0 l/m 2,2 km/h (1 Bft) W 275 2 min 0,000 mm 1,1 UV-I 305 W/m 9,4 C 18,9 C 3,2 km/h (1 Bft) 97,87 %
23.09.2016 16:12 19,0 C 55 % 1024,2 hPa 0,0 l/m 0,9 km/h (0 Bft) W 277 2 min 0,000 mm 1,1 UV-I 305 W/m 9,8 C 19,0 C 3,2 km/h (1 Bft) 97,96 %
23.09.2016 16:14 19,1 C 56 % 1024,2 hPa 0,0 l/m 2,3 km/h (1 Bft) W-NW 287 2 min 0,000 mm 1,1 UV-I 327 W/m 10,1 C 19,1 C 4,8 km/h (1 Bft) 97,87 %
23.09.2016 16:16 19,0 C 54 % 1024,2 hPa 0,0 l/m 1,8 km/h (1 Bft) W 271 2 min 0,000 mm 1,1 UV-I 338 W/m 9,5 C 19,0 C 3,2 km/h (1 Bft) 97,87 %
23.09.2016 16:18 19,0 C 54 % 1024,2 hPa 0,0 l/m 5,3 km/h (1 Bft) W 263 2 min 0,000 mm 1,1 UV-I 351 W/m 9,5 C 19,0 C 9,7 km/h (2 Bft) 97,87 %
23.09.2016 16:20 19,1 C 53 % 1024,2 hPa 0,0 l/m 4,8 km/h (1 Bft) W 269 2 min 0,000 mm 1,1 UV-I 371 W/m 9,3 C 19,1 C 6,4 km/h (2 Bft) 100,00 %
23.09.2016 16:22 19,1 C 54 % 1024,2 hPa 0,0 l/m 5,7 km/h (1 Bft) W-SW 252 2 min 0,000 mm 1,1 UV-I 383 W/m 9,6 C 19,1 C 8,0 km/h (2 Bft) 98,00 %
23.09.2016 16:24 19,2 C 55 % 1024,2 hPa 0,0 l/m 3,0 km/h (1 Bft) W-SW 237 2 min 0,000 mm 1,0 UV-I 390 W/m 9,9 C 19,2 C 6,4 km/h (2 Bft) 100,00 %
23.09.2016 16:26 19,3 C 54 % 1024,2 hPa 0,0 l/m 3,6 km/h (1 Bft) W-SW 240 2 min 0,000 mm 1,0 UV-I 395 W/m 9,8 C 19,3 C 6,4 km/h (2 Bft) 98,00 %
23.09.2016 16:28 19,2 C 53 % 1024,2 hPa 0,0 l/m 2,4 km/h (1 Bft) W-SW 240 2 min 0,000 mm 1,0 UV-I 387 W/m 9,4 C 19,2 C 4,8 km/h (1 Bft) 97,87 %
23.09.2016 16:30 19,2 C 56 % 1024,2 hPa 0,0 l/m 3,6 km/h (1 Bft) W 260 2 min 0,000 mm 1,0 UV-I 379 W/m 10,2 C 19,2 C 8,0 km/h (2 Bft) 100,00 %
23.09.2016 16:32 19,2 C 54 % 1024,2 hPa 0,0 l/m 4,9 km/h (1 Bft) W-SW 251 2 min 0,000 mm 0,9 UV-I 356 W/m 9,7 C 19,2 C 8,0 km/h (2 Bft) 93,62 %
23.09.2016 16:34 19,2 C 54 % 1024,3 hPa 0,0 l/m 3,9 km/h (1 Bft) SW 233 2 min 0,000 mm 0,9 UV-I 341 W/m 9,7 C 19,2 C 6,4 km/h (2 Bft) 100,00 %
23.09.2016 16:36 19,2 C 55 % 1024,3 hPa 0,0 l/m 1,7 km/h (1 Bft) W-SW 238 2 min 0,000 mm 0,9 UV-I 335 W/m 9,9 C 19,2 C 6,4 km/h (2 Bft) 100,00 %
23.09.2016 16:38 19,2 C 55 % 1024,3 hPa 0,0 l/m 3,8 km/h (1 Bft) S 188 2 min 0,000 mm 0,8 UV-I 326 W/m 9,9 C 19,2 C 6,4 km/h (2 Bft) 100,00 %
23.09.2016 16:40 19,2 C 54 % 1024,3 hPa 0,0 l/m 2,1 km/h (1 Bft) S 188 2 min 0,000 mm 0,8 UV-I 306 W/m 9,7 C 19,2 C 4,8 km/h (1 Bft) 100,00 %
23.09.2016 16:42 19,1 C 55 % 1024,2 hPa 0,0 l/m 3,1 km/h (1 Bft) SW 220 2 min 0,000 mm 0,8 UV-I 274 W/m 9,8 C 19,1 C 4,8 km/h (1 Bft) 100,00 %
23.09.2016 16:44 19,1 C 56 % 1024,2 hPa 0,0 l/m 4,4 km/h (1 Bft) W 261 2 min 0,000 mm 0,7 UV-I 260 W/m 10,1 C 19,1 C 6,4 km/h (2 Bft) 95,74 %
23.09.2016 16:46 19,1 C 55 % 1024,2 hPa 0,0 l/m 7,2 km/h (2 Bft) W-SW 248 2 min 0,000 mm 0,7 UV-I 253 W/m 9,8 C 18,7 C 11,3 km/h (2 Bft) 97,06 %
23.09.2016 16:48 19,1 C 56 % 1024,2 hPa 0,0 l/m 4,9 km/h (1 Bft) W 269 2 min 0,000 mm 0,7 UV-I 258 W/m 10,1 C 19,1 C 8,0 km/h (2 Bft) 100,00 %
23.09.2016 16:50 19,0 C 57 % 1024,2 hPa 0,0 l/m 2,7 km/h (1 Bft) W 279 2 min 0,000 mm 0,6 UV-I 247 W/m 10,3 C 19,0 C 4,8 km/h (1 Bft) 100,00 %
23.09.2016 16:52 18,9 C 56 % 1024,2 hPa 0,0 l/m 5,4 km/h (1 Bft) SW 217 2 min 0,000 mm 0,6 UV-I 218 W/m 9,9 C 18,9 C 8,0 km/h (2 Bft) 97,87 %
23.09.2016 16:54 18,9 C 57 % 1024,2 hPa 0,0 l/m 4,5 km/h (1 Bft) S 186 2 min 0,000 mm 0,6 UV-I 189 W/m 10,2 C 18,9 C 8,0 km/h (2 Bft) 100,00 %
23.09.2016 16:56 18,9 C 58 % 1024,3 hPa 0,0 l/m 3,3 km/h (1 Bft) W 269 0 min 0,000 mm 0,6 UV-I 173 W/m 10,5 C 18,9 C 6,4 km/h (2 Bft) 97,87 %
23.09.2016 16:58 18,8 C 56 % 1024,3 hPa 0,0 l/m 2,7 km/h (1 Bft) W 259 0 min 0,000 mm 0,5 UV-I 168 W/m 9,8 C 18,8 C 6,4 km/h (2 Bft) 100,00 %
23.09.2016 17:00 18,8 C 59 % 1024,3 hPa 0,0 l/m 4,5 km/h (1 Bft) W 273 0 min 0,000 mm 0,5 UV-I 166 W/m 10,6 C 18,8 C 6,4 km/h (2 Bft) 100,00 %
23.09.2016 17:02 18,7 C 59 % 1024,3 hPa 0,0 l/m 2,8 km/h (1 Bft) S 189 0 min 0,203 mm 0,5 UV-I 171 W/m 10,5 C 18,7 C 4,8 km/h (1 Bft) 100,00 %
23.09.2016 17:04 18,7 C 58 % 1024,3 hPa 0,0 l/m 6,3 km/h (2 Bft) W-SW 250 2 min 0,000 mm 0,5 UV-I 171 W/m 10,3 C 18,7 C 11,3 km/h (2 Bft) 100,00 %
23.09.2016 17:06 18,7 C 59 % 1024,3 hPa 0,0 l/m 5,2 km/h (1 Bft) W 264 2 min 0,000 mm 0,5 UV-I 168 W/m 10,5 C 18,7 C 8,0 km/h (2 Bft) 100,00 %
23.09.2016 17:08 18,6 C 59 % 1024,3 hPa 0,0 l/m 6,0 km/h (2 Bft) W-SW 250 0 min 0,000 mm 0,1 UV-I 139 W/m 10,4 C 18,6 C 9,7 km/h (2 Bft) 97,87 %
23.09.2016 17:10 18,6 C 60 % 1024,3 hPa 0,0 l/m 4,7 km/h (1 Bft) W-SW 250 0 min 0,000 mm 0,0 UV-I 123 W/m 10,7 C 18,6 C 6,4 km/h (2 Bft) 100,00 %
23.09.2016 17:12 18,6 C 60 % 1024,3 hPa 0,0 l/m 3,4 km/h (1 Bft) W-SW 250 0 min 0,000 mm 0,0 UV-I 120 W/m 10,7 C 18,6 C 6,4 km/h (2 Bft) 97,87 %
23.09.2016 17:14 18,5 C 59 % 1024,4 hPa 0,0 l/m 3,5 km/h (1 Bft) W-SW 250 0 min 0,000 mm 0,0 UV-I 126 W/m 10,3 C 18,5 C 4,8 km/h (1 Bft) 97,87 %
23.09.2016 17:16 18,4 C 61 % 1024,3 hPa 0,0 l/m 2,4 km/h (1 Bft) W-SW 250 0 min 0,000 mm 0,0 UV-I 136 W/m 10,7 C 18,4 C 4,8 km/h (1 Bft) 100,00 %
23.09.2016 17:18 18,4 C 61 % 1024,4 hPa 0,0 l/m 3,2 km/h (1 Bft) W-SW 253 0 min 0,000 mm 0,0 UV-I 145 W/m 10,7 C 18,4 C 4,8 km/h (1 Bft) 100,00 %
23.09.2016 17:20 18,4 C 60 % 1024,4 hPa 0,0 l/m 1,8 km/h (1 Bft) W-SW 253 0 min 0,000 mm 0,0 UV-I 137 W/m 10,5 C 18,4 C 3,2 km/h (1 Bft) 100,00 %
23.09.2016 17:22 18,4 C 61 % 1024,4 hPa 0,0 l/m 2,4 km/h (1 Bft) W-SW 253 0 min 0,000 mm 0,0 UV-I 123 W/m 10,7 C 18,4 C 4,8 km/h (1 Bft) 100,00 %
23.09.2016 17:24 18,3 C 60 % 1024,3 hPa 0,0 l/m 3,1 km/h (1 Bft) W-SW 254 0 min 0,000 mm 0,0 UV-I 115 W/m 10,4 C 18,3 C 4,8 km/h (1 Bft) 100,00 %
23.09.2016 17:26 18,3 C 60 % 1024,4 hPa 0,0 l/m 3,8 km/h (1 Bft) W-SW 254 0 min 0,000 mm 0,0 UV-I 105 W/m 10,4 C 18,3 C 4,8 km/h (1 Bft) 100,00 %
23.09.2016 17:28 18,3 C 62 % 1024,4 hPa 0,0 l/m 2,6 km/h (1 Bft) W-SW 254 0 min 0,000 mm 0,0 UV-I 103 W/m 10,9 C 18,3 C 3,2 km/h (1 Bft) 100,00 %
23.09.2016 17:30 18,2 C 63 % 1024,4 hPa 0,0 l/m 1,3 km/h (1 Bft) W-SW 254 0 min 0,000 mm 0,0 UV-I 109 W/m 11,0 C 18,2 C 3,2 km/h (1 Bft) 96,00 %
23.09.2016 17:32 18,2 C 63 % 1024,4 hPa 0,0 l/m 0,8 km/h (0 Bft) W-SW 254 0 min 0,000 mm 0,0 UV-I 112 W/m 11,0 C 18,2 C 1,6 km/h (1 Bft) 95,74 %
23.09.2016 17:34 18,2 C 64 % 1024,4 hPa 0,0 l/m 0,7 km/h (0 Bft) W-SW 254 0 min 0,000 mm 0,0 UV-I 115 W/m 11,3 C 18,2 C 1,6 km/h (1 Bft) 97,87 %
23.09.2016 17:36 18,2 C 64 % 1024,4 hPa 0,0 l/m 0,6 km/h (0 Bft) W-SW 254 0 min 0,000 mm 0,0 UV-I 108 W/m 11,3 C 18,2 C 1,6 km/h (1 Bft) 97,87 %
23.09.2016 17:38 18,2 C 64 % 1024,4 hPa 0,0 l/m 0,4 km/h (0 Bft) W-SW 254 0 min 0,000 mm 0,0 UV-I 93 W/m 11,3 C 18,2 C 3,2 km/h (1 Bft) 98,11 %
23.09.2016 17:40 18,2 C 64 % 1024,4 hPa 0,0 l/m 0,9 km/h (0 Bft) W-SW 254 0 min 0,000 mm 0,0 UV-I 80 W/m 11,3 C 18,2 C 1,6 km/h (1 Bft) 97,22 %
23.09.2016 17:42 18,1 C 65 % 1024,4 hPa 0,0 l/m 0,4 km/h (0 Bft) W-SW 254 0 min 0,000 mm 0,0 UV-I 81 W/m 11,4 C 18,1 C 1,6 km/h (1 Bft) 97,87 %
23.09.2016 17:44 18,1 C 65 % 1024,4 hPa 0,0 l/m 0,0 km/h (0 Bft) W-SW 254 0 min 0,000 mm 0,0 UV-I 91 W/m 11,4 C 18,1 C 0,0 km/h (0 Bft) 95,74 %
23.09.2016 17:46 18,0 C 63 % 1024,4 hPa 0,0 l/m 0,0 km/h (0 Bft) W-SW 254 0 min 0,000 mm 0,0 UV-I 88 W/m 10,8 C 18,0 C 0,0 km/h (0 Bft) 97,87 %
23.09.2016 17:48 17,9 C 70 % 1024,4 hPa 0,0 l/m 0,0 km/h (0 Bft) W-SW 254 0 min 0,000 mm 0,0 UV-I 79 W/m 12,3 C 17,9 C 0,0 km/h (0 Bft) 95,74 %
23.09.2016 17:50 17,8 C 71 % 1024,4 hPa 0,0 l/m 0,0 km/h (0 Bft) W-SW 254 0 min 0,000 mm 0,0 UV-I 78 W/m 12,5 C 17,8 C 1,6 km/h (1 Bft) 95,74 %
23.09.2016 17:52 17,7 C 72 % 1024,4 hPa 0,0 l/m 0,0 km/h (0 Bft) W-SW 254 0 min 0,000 mm 0,0 UV-I 72 W/m 12,6 C 17,7 C 0,0 km/h (0 Bft) 97,87 %
23.09.2016 17:54 17,5 C 74 % 1024,4 hPa 0,0 l/m 0,0 km/h (0 Bft) W-SW 254 0 min 0,000 mm 0,0 UV-I 63 W/m 12,8 C 17,5 C 1,6 km/h (1 Bft) 97,87 %
23.09.2016 17:56 17,3 C 75 % 1024,4 hPa 0,0 l/m 0,3 km/h (0 Bft) W-SW 254 0 min 0,000 mm 0,0 UV-I 62 W/m 12,8 C 17,3 C 1,6 km/h (1 Bft) 97,87 %
23.09.2016 17:58 17,1 C 75 % 1024,4 hPa 0,0 l/m 1,0 km/h (0 Bft) W-SW 254 0 min 0,000 mm 0,0 UV-I 60 W/m 12,6 C 17,1 C 1,6 km/h (1 Bft) 96,00 %
23.09.2016 18:00 16,9 C 76 % 1024,4 hPa 0,0 l/m 0,8 km/h (0 Bft) W-SW 254 0 min 0,000 mm 0,0 UV-I 59 W/m 12,6 C 16,9 C 1,6 km/h (1 Bft) 98,00 %
23.09.2016 18:02 16,8 C 75 % 1024,4 hPa 0,0 l/m 0,5 km/h (0 Bft) W-SW 254 0 min 0,077 mm 0,0 UV-I 58 W/m 12,3 C 16,8 C 1,6 km/h (1 Bft) 100,00 %
23.09.2016 18:04 16,7 C 76 % 1024,4 hPa 0,0 l/m 0,9 km/h (0 Bft) W-SW 254 0 min 0,000 mm 0,0 UV-I 55 W/m 12,4 C 16,7 C 1,6 km/h (1 Bft) 100,00 %
23.09.2016 18:06 16,6 C 76 % 1024,4 hPa 0,0 l/m 1,0 km/h (0 Bft) W-SW 254 0 min 0,000 mm 0,0 UV-I 54 W/m 12,3 C 16,6 C 1,6 km/h (1 Bft) 100,00 %
23.09.2016 18:08 16,4 C 77 % 1024,4 hPa 0,0 l/m 0,3 km/h (0 Bft) W-SW 254 0 min 0,000 mm 0,0 UV-I 53 W/m 12,4 C 16,4 C 1,6 km/h (1 Bft) 100,00 %
23.09.2016 18:10 16,4 C 78 % 1024,4 hPa 0,0 l/m 0,9 km/h (0 Bft) W-SW 254 0 min 0,000 mm 0,0 UV-I 50 W/m 12,6 C 16,4 C 1,6 km/h (1 Bft) 97,87 %
23.09.2016 18:12 16,3 C 78 % 1024,4 hPa 0,0 l/m 1,2 km/h (1 Bft) W-SW 254 0 min 0,000 mm 0,0 UV-I 47 W/m 12,5 C 16,3 C 1,6 km/h (1 Bft) 100,00 %
23.09.2016 18:14 16,2 C 79 % 1024,4 hPa 0,0 l/m 1,4 km/h (1 Bft) W-SW 254 0 min 0,000 mm 0,0 UV-I 45 W/m 12,6 C 16,2 C 1,6 km/h (1 Bft) 100,00 %
23.09.2016 18:16 16,1 C 78 % 1024,4 hPa 0,0 l/m 1,5 km/h (1 Bft) W-SW 254 0 min 0,000 mm 0,0 UV-I 42 W/m 12,3 C 16,1 C 1,6 km/h (1 Bft) 100,00 %
23.09.2016 18:18 16,0 C 78 % 1024,4 hPa 0,0 l/m 2,1 km/h (1 Bft) W-SW 254 0 min 0,000 mm 0,0 UV-I 41 W/m 12,2 C 16,0 C 3,2 km/h (1 Bft) 97,87 %
23.09.2016 18:20 15,9 C 78 % 1024,4 hPa 0,0 l/m 2,5 km/h (1 Bft) W-SW 254 0 min 0,000 mm 0,0 UV-I 37 W/m 12,1 C 15,9 C 3,2 km/h (1 Bft) 100,00 %
23.09.2016 18:22 15,8 C 78 % 1024,4 hPa 0,0 l/m 3,1 km/h (1 Bft) W-SW 254 0 min 0,000 mm 0,0 UV-I 34 W/m 12,0 C 15,8 C 3,2 km/h (1 Bft) 100,00 %
23.09.2016 18:24 15,7 C 79 % 1024,4 hPa 0,0 l/m 3,2 km/h (1 Bft) W-SW 254 0 min 0,000 mm 0,0 UV-I 32 W/m 12,1 C 15,7 C 4,8 km/h (1 Bft) 100,00 %
23.09.2016 18:26 15,6 C 79 % 1024,5 hPa 0,0 l/m 3,2 km/h (1 Bft) W-SW 252 0 min 0,000 mm 0,0 UV-I 32 W/m 12,0 C 15,6 C 4,8 km/h (1 Bft) 100,00 %
23.09.2016 18:28 15,6 C 77 % 1024,4 hPa 0,0 l/m 2,7 km/h (1 Bft) W-SW 252 0 min 0,000 mm 0,0 UV-I 29 W/m 11,6 C 15,6 C 3,2 km/h (1 Bft) 97,87 %
23.09.2016 18:30 15,6 C 78 % 1024,5 hPa 0,0 l/m 1,6 km/h (1 Bft) W-SW 252 0 min 0,000 mm 0,0 UV-I 27 W/m 11,8 C 15,6 C 3,2 km/h (1 Bft) 97,87 %
23.09.2016 18:32 15,5 C 78 % 1024,5 hPa 0,0 l/m 0,1 km/h (0 Bft) W-SW 252 0 min 0,000 mm 0,0 UV-I 25 W/m 11,7 C 15,5 C 1,6 km/h (1 Bft) 100,00 %
23.09.2016 18:34 15,6 C 76 % 1024,5 hPa 0,0 l/m 0,1 km/h (0 Bft) W-SW 252 0 min 0,000 mm 0,0 UV-I 23 W/m 11,4 C 15,6 C 1,6 km/h (1 Bft) 100,00 %
23.09.2016 18:36 15,6 C 77 % 1024,5 hPa 0,0 l/m 0,1 km/h (0 Bft) W-SW 252 0 min 0,000 mm 0,0 UV-I 21 W/m 11,6 C 15,6 C 1,6 km/h (1 Bft) 100,00 %
23.09.2016 18:38 15,5 C 77 % 1024,5 hPa 0,0 l/m 0,0 km/h (0 Bft) W-SW 252 0 min 0,000 mm 0,0 UV-I 20 W/m 11,5 C 15,5 C 1,6 km/h (1 Bft) 100,00 %
23.09.2016 18:40 15,4 C 78 % 1024,5 hPa 0,0 l/m 0,0 km/h (0 Bft) W-SW 252 0 min 0,000 mm 0,0 UV-I 17 W/m 11,6 C 15,4 C 1,6 km/h (1 Bft) 100,00 %
23.09.2016 18:42 15,3 C 80 % 1024,6 hPa 0,0 l/m 0,0 km/h (0 Bft) W-SW 252 0 min 0,000 mm 0,0 UV-I 16 W/m 11,9 C 15,3 C 0,0 km/h (0 Bft) 94,74 %
23.09.2016 18:44 15,2 C 81 % 1024,6 hPa 0,0 l/m 0,0 km/h (0 Bft) W-SW 252 0 min 0,000 mm 0,0 UV-I 14 W/m 12,0 C 15,2 C 0,0 km/h (0 Bft) 100,00 %
23.09.2016 18:46 15,1 C 82 % 1024,6 hPa 0,0 l/m 0,0 km/h (0 Bft) W-SW 252 0 min 0,000 mm 0,0 UV-I 12 W/m 12,0 C 15,1 C 0,0 km/h (0 Bft) 100,00 %
23.09.2016 18:48 15,0 C 82 % 1024,6 hPa 0,0 l/m 0,0 km/h (0 Bft) W-SW 252 2 min 0,000 mm 0,0 UV-I 11 W/m 12,0 C 15,0 C 0,0 km/h (0 Bft) 95,74 %
23.09.2016 18:50 14,9 C 83 % 1024,6 hPa 0,0 l/m 0,0 km/h (0 Bft) W-SW 252 0 min 0,000 mm 0,0 UV-I 10 W/m 12,0 C 14,9 C 0,0 km/h (0 Bft) 97,87 %
23.09.2016 18:52 14,9 C 84 % 1024,6 hPa 0,0 l/m 1,8 km/h (1 Bft) W-SW 252 0 min 0,000 mm 0,0 UV-I 9 W/m 12,2 C 14,9 C 3,2 km/h (1 Bft) 98,00 %
23.09.2016 18:54 14,8 C 84 % 1024,7 hPa 0,0 l/m 2,0 km/h (1 Bft) W-SW 252 0 min 0,000 mm 0,0 UV-I 8 W/m 12,1 C 14,8 C 3,2 km/h (1 Bft) 100,00 %
23.09.2016 18:56 14,8 C 83 % 1024,7 hPa 0,0 l/m 2,0 km/h (1 Bft) W-SW 250 0 min 0,000 mm 0,0 UV-I 6 W/m 11,9 C 14,8 C 4,8 km/h (1 Bft) 100,00 %
23.09.2016 18:58 14,7 C 83 % 1024,6 hPa 0,0 l/m 3,0 km/h (1 Bft) W-SW 250 0 min 0,000 mm 0,0 UV-I 5 W/m 11,8 C 14,7 C 4,8 km/h (1 Bft) 95,83 %
23.09.2016 19:00 14,5 C 84 % 1024,7 hPa 0,0 l/m 1,3 km/h (1 Bft) W-SW 250 0 min 0,025 mm 0,0 UV-I 5 W/m 11,8 C 14,5 C 3,2 km/h (1 Bft) 100,00 %
23.09.2016 19:02 14,4 C 84 % 1024,6 hPa 0,0 l/m 1,5 km/h (1 Bft) W-SW 248 0 min 0,000 mm 0,0 UV-I 5 W/m 11,7 C 14,4 C 3,2 km/h (1 Bft) 97,87 %
23.09.2016 19:04 14,2 C 84 % 1024,6 hPa 0,0 l/m 1,8 km/h (1 Bft) W-SW 246 0 min 0,000 mm 0,0 UV-I 5 W/m 11,5 C 14,2 C 3,2 km/h (1 Bft) 100,00 %
23.09.2016 19:06 14,1 C 84 % 1024,6 hPa 0,0 l/m 2,4 km/h (1 Bft) W-SW 246 0 min 0,000 mm 0,0 UV-I 0 W/m 11,4 C 14,1 C 4,8 km/h (1 Bft) 100,00 %
23.09.2016 19:08 14,1 C 85 % 1024,6 hPa 0,0 l/m 0,7 km/h (0 Bft) W-SW 246 0 min 0,000 mm 0,0 UV-I 0 W/m 11,6 C 14,1 C 3,2 km/h (1 Bft) 97,87 %
23.09.2016 19:10 13,9 C 84 % 1024,6 hPa 0,0 l/m 1,1 km/h (1 Bft) W-SW 246 0 min 0,000 mm 0,0 UV-I 0 W/m 11,2 C 13,9 C 3,2 km/h (1 Bft) 97,96 %
23.09.2016 19:12 13,9 C 84 % 1024,6 hPa 0,0 l/m 0,7 km/h (0 Bft) W-SW 246 0 min 0,000 mm 0,0 UV-I 0 W/m 11,2 C 13,9 C 1,6 km/h (1 Bft) 94,74 %
23.09.2016 19:14 13,8 C 85 % 1024,7 hPa 0,0 l/m 0,4 km/h (0 Bft) W-SW 246 0 min 0,000 mm 0,0 UV-I 0 W/m 11,3 C 13,8 C 1,6 km/h (1 Bft) 100,00 %
23.09.2016 19:16 13,7 C 85 % 1024,7 hPa 0,0 l/m 0,4 km/h (0 Bft) W-SW 246 0 min 0,000 mm 0,0 UV-I 0 W/m 11,2 C 13,7 C 1,6 km/h (1 Bft) 100,00 %
23.09.2016 19:18 13,5 C 85 % 1024,7 hPa 0,0 l/m 0,5 km/h (0 Bft) W-SW 246 0 min 0,000 mm 0,0 UV-I 0 W/m 11,0 C 13,5 C 1,6 km/h (1 Bft) 100,00 %
23.09.2016 19:20 13,4 C 86 % 1024,7 hPa 0,0 l/m 0,6 km/h (0 Bft) W-SW 246 0 min 0,000 mm 0,0 UV-I 0 W/m 11,1 C 13,4 C 1,6 km/h (1 Bft) 100,00 %
23.09.2016 19:22 13,3 C 86 % 1024,7 hPa 0,0 l/m 0,3 km/h (0 Bft) W-SW 246 0 min 0,000 mm 0,0 UV-I 0 W/m 11,0 C 13,3 C 1,6 km/h (1 Bft) 100,00 %
23.09.2016 19:24 13,3 C 86 % 1024,7 hPa 0,0 l/m 0,4 km/h (0 Bft) W-SW 246 0 min 0,000 mm 0,0 UV-I 0 W/m 11,0 C 13,3 C 1,6 km/h (1 Bft) 100,00 %
23.09.2016 19:26 13,3 C 86 % 1024,7 hPa 0,0 l/m 0,6 km/h (0 Bft) W-SW 246 0 min 0,000 mm 0,0 UV-I 0 W/m 11,0 C 13,3 C 1,6 km/h (1 Bft) 98,00 %
23.09.2016 19:28 13,2 C 86 % 1024,8 hPa 0,0 l/m 0,8 km/h (0 Bft) W-SW 246 0 min 0,000 mm 0,0 UV-I 0 W/m 10,9 C 13,2 C 1,6 km/h (1 Bft) 100,00 %
23.09.2016 19:30 13,2 C 86 % 1024,8 hPa 0,0 l/m 1,4 km/h (1 Bft) W-SW 246 0 min 0,000 mm 0,0 UV-I 0 W/m 10,9 C 13,2 C 3,2 km/h (1 Bft) 100,00 %
23.09.2016 19:32 13,1 C 87 % 1024,8 hPa 0,0 l/m 1,1 km/h (1 Bft) W-SW 244 0 min 0,000 mm 0,0 UV-I 0 W/m 11,0 C 13,1 C 3,2 km/h (1 Bft) 97,87 %
23.09.2016 19:34 13,1 C 87 % 1024,8 hPa 0,0 l/m 0,5 km/h (0 Bft) W-SW 244 0 min 0,000 mm 0,0 UV-I 0 W/m 11,0 C 13,1 C 1,6 km/h (1 Bft) 95,74 %
23.09.2016 19:36 13,1 C 87 % 1024,8 hPa 0,0 l/m 0,6 km/h (0 Bft) W-SW 244 0 min 0,000 mm 0,0 UV-I 0 W/m 11,0 C 13,1 C 1,6 km/h (1 Bft) 95,74 %
23.09.2016 19:38 13,2 C 87 % 1024,8 hPa 0,0 l/m 1,3 km/h (1 Bft) W-SW 244 0 min 0,000 mm 0,0 UV-I 0 W/m 11,1 C 13,2 C 3,2 km/h (1 Bft) 91,49 %
23.09.2016 19:40 13,3 C 86 % 1024,8 hPa 0,0 l/m 2,5 km/h (1 Bft) W-SW 244 0 min 0,000 mm 0,0 UV-I 0 W/m 11,0 C 13,3 C 3,2 km/h (1 Bft) 95,74 %
23.09.2016 19:42 13,3 C 86 % 1024,9 hPa 0,0 l/m 2,8 km/h (1 Bft) W-SW 244 0 min 0,000 mm 0,0 UV-I 0 W/m 11,0 C 13,3 C 3,2 km/h (1 Bft) 95,83 %
23.09.2016 19:44 13,3 C 86 % 1024,9 hPa 0,0 l/m 1,4 km/h (1 Bft) W-SW 244 0 min 0,000 mm 0,0 UV-I 0 W/m 11,0 C 13,3 C 3,2 km/h (1 Bft) 97,37 %
23.09.2016 19:46 13,3 C 86 % 1024,9 hPa 0,0 l/m 0,8 km/h (0 Bft) W-SW 244 0 min 0,000 mm 0,0 UV-I 0 W/m 11,0 C 13,3 C 1,6 km/h (1 Bft) 97,87 %
23.09.2016 19:48 13,4 C 86 % 1024,9 hPa 0,0 l/m 1,5 km/h (1 Bft) W-SW 244 0 min 0,000 mm 0,0 UV-I 0 W/m 11,1 C 13,4 C 3,2 km/h (1 Bft) 93,62 %
23.09.2016 19:50 13,4 C 86 % 1024,9 hPa 0,0 l/m 1,7 km/h (1 Bft) W-SW 244 0 min 0,000 mm 0,0 UV-I 0 W/m 11,1 C 13,4 C 3,2 km/h (1 Bft) 98,00 %
23.09.2016 19:52 13,3 C 86 % 1024,9 hPa 0,0 l/m 2,2 km/h (1 Bft) W-SW 244 0 min 0,000 mm 0,0 UV-I 0 W/m 11,0 C 13,3 C 3,2 km/h (1 Bft) 97,87 %
23.09.2016 19:54 13,2 C 86 % 1024,9 hPa 0,0 l/m 1,3 km/h (1 Bft) W-SW 244 0 min 0,000 mm 0,0 UV-I 0 W/m 10,9 C 13,2 C 3,2 km/h (1 Bft) 94,00 %
23.09.2016 19:56 13,1 C 86 % 1024,9 hPa 0,0 l/m 0,6 km/h (0 Bft) W-SW 244 0 min 0,000 mm 0,0 UV-I 0 W/m 10,8 C 13,1 C 1,6 km/h (1 Bft) 97,87 %
23.09.2016 19:58 13,0 C 86 % 1025,0 hPa 0,0 l/m 0,6 km/h (0 Bft) W-SW 244 0 min 0,000 mm 0,0 UV-I 0 W/m 10,7 C 13,0 C 1,6 km/h (1 Bft) 95,74 %
23.09.2016 20:00 13,0 C 86 % 1025,0 hPa 0,0 l/m 0,6 km/h (0 Bft) W-SW 244 0 min 0,000 mm 0,0 UV-I 0 W/m 10,7 C 13,0 C 1,6 km/h (1 Bft) 95,74 %
23.09.2016 20:02 12,9 C 86 % 1025,0 hPa 0,0 l/m 0,1 km/h (0 Bft) W-SW 244 0 min 0,000 mm 0,0 UV-I 0 W/m 10,6 C 12,9 C 1,6 km/h (1 Bft) 91,49 %
23.09.2016 20:04 12,9 C 86 % 1025,0 hPa 0,0 l/m 0,7 km/h (0 Bft) W-SW 244 0 min 0,000 mm 0,0 UV-I 0 W/m 10,6 C 12,9 C 1,6 km/h (1 Bft) 95,74 %
23.09.2016 20:06 12,9 C 86 % 1025,0 hPa 0,0 l/m 0,5 km/h (0 Bft) W-SW 244 0 min 0,000 mm 0,0 UV-I 0 W/m 10,6 C 12,9 C 1,6 km/h (1 Bft) 97,96 %
23.09.2016 20:08 13,0 C 86 % 1025,1 hPa 0,0 l/m 0,0 km/h (0 Bft) W-SW 244 0 min 0,000 mm 0,0 UV-I 0 W/m 10,7 C 13,0 C 1,6 km/h (1 Bft) 97,37 %
23.09.2016 20:10 13,0 C 86 % 1025,1 hPa 0,0 l/m 1,3 km/h (1 Bft) W-SW 244 0 min 0,000 mm 0,0 UV-I 0 W/m 10,7 C 13,0 C 3,2 km/h (1 Bft) 97,87 %
23.09.2016 20:12 13,1 C 86 % 1025,1 hPa 0,0 l/m 2,3 km/h (1 Bft) W-SW 244 0 min 0,000 mm 0,0 UV-I 0 W/m 10,8 C 13,1 C 3,2 km/h (1 Bft) 100,00 %
23.09.2016 20:14 13,1 C 85 % 1025,1 hPa 0,0 l/m 2,9 km/h (1 Bft) W-SW 244 0 min 0,000 mm 0,0 UV-I 0 W/m 10,6 C 13,1 C 4,8 km/h (1 Bft) 97,87 %
23.09.2016 20:16 13,1 C 86 % 1025,1 hPa 0,0 l/m 3,0 km/h (1 Bft) W-SW 244 0 min 0,000 mm 0,0 UV-I 0 W/m 10,8 C 13,1 C 3,2 km/h (1 Bft) 100,00 %
23.09.2016 20:18 12,9 C 86 % 1025,2 hPa 0,0 l/m 3,1 km/h (1 Bft) W-SW 244 0 min 0,000 mm 0,0 UV-I 0 W/m 10,6 C 12,9 C 3,2 km/h (1 Bft) 100,00 %
23.09.2016 20:20 12,8 C 86 % 1025,1 hPa 0,0 l/m 3,3 km/h (1 Bft) W-SW 244 0 min 0,000 mm 0,0 UV-I 0 W/m 10,5 C 12,8 C 4,8 km/h (1 Bft) 97,92 %
23.09.2016 20:22 12,7 C 86 % 1025,2 hPa 0,0 l/m 3,0 km/h (1 Bft) W-SW 244 0 min 0,000 mm 0,0 UV-I 0 W/m 10,4 C 12,7 C 4,8 km/h (1 Bft) 100,00 %
23.09.2016 20:24 12,5 C 87 % 1025,1 hPa 0,0 l/m 3,2 km/h (1 Bft) W-SW 244 0 min 0,000 mm 0,0 UV-I 0 W/m 10,4 C 12,5 C 4,8 km/h (1 Bft) 97,87 %
23.09.2016 20:26 12,4 C 88 % 1025,1 hPa 0,0 l/m 2,9 km/h (1 Bft) W-SW 244 0 min 0,000 mm 0,0 UV-I 0 W/m 10,5 C 12,4 C 3,2 km/h (1 Bft) 100,00 %
23.09.2016 20:28 12,3 C 87 % 1025,2 hPa 0,0 l/m 1,9 km/h (1 Bft) W-SW 244 0 min 0,000 mm 0,0 UV-I 0 W/m 10,2 C 12,3 C 3,2 km/h (1 Bft) 97,87 %
23.09.2016 20:30 12,3 C 88 % 1025,2 hPa 0,0 l/m 0,7 km/h (0 Bft) W-SW 244 0 min 0,000 mm 0,0 UV-I 0 W/m 10,4 C 12,3 C 1,6 km/h (1 Bft) 100,00 %
23.09.2016 20:32 12,2 C 88 % 1025,2 hPa 0,0 l/m 0,6 km/h (0 Bft) W-SW 244 0 min 0,000 mm 0,0 UV-I 0 W/m 10,3 C 12,2 C 1,6 km/h (1 Bft) 100,00 %
23.09.2016 20:34 12,2 C 88 % 1025,2 hPa 0,0 l/m 0,4 km/h (0 Bft) W-SW 244 0 min 0,000 mm 0,0 UV-I 0 W/m 10,3 C 12,2 C 1,6 km/h (1 Bft) 97,87 %
23.09.2016 20:36 12,3 C 88 % 1025,3 hPa 0,0 l/m 0,7 km/h (0 Bft) W-SW 244 0 min 0,000 mm 0,0 UV-I 0 W/m 10,4 C 12,3 C 1,6 km/h (1 Bft) 100,00 %
23.09.2016 20:38 12,3 C 87 % 1025,3 hPa 0,0 l/m 0,1 km/h (0 Bft) W-SW 244 0 min 0,000 mm 0,0 UV-I 0 W/m 10,2 C 12,3 C 1,6 km/h (1 Bft) 97,87 %
23.09.2016 20:40 12,3 C 87 % 1025,3 hPa 0,0 l/m 0,3 km/h (0 Bft) W-SW 244 0 min 0,000 mm 0,0 UV-I 0 W/m 10,2 C 12,3 C 1,6 km/h (1 Bft) 100,00 %
23.09.2016 20:42 12,3 C 88 % 1025,3 hPa 0,0 l/m 1,8 km/h (1 Bft) W-SW 244 0 min 0,000 mm 0,0 UV-I 0 W/m 10,4 C 12,3 C 3,2 km/h (1 Bft) 97,87 %
23.09.2016 20:44 12,3 C 88 % 1025,3 hPa 0,0 l/m 2,2 km/h (1 Bft) W-SW 244 0 min 0,000 mm 0,0 UV-I 0 W/m 10,4 C 12,3 C 3,2 km/h (1 Bft) 100,00 %
23.09.2016 20:46 12,2 C 88 % 1025,3 hPa 0,0 l/m 3,5 km/h (1 Bft) W-SW 244 0 min 0,000 mm 0,0 UV-I 0 W/m 10,3 C 12,2 C 4,8 km/h (1 Bft) 95,74 %
23.09.2016 20:48 12,2 C 88 % 1025,3 hPa 0,0 l/m 4,0 km/h (1 Bft) W-SW 244 0 min 0,000 mm 0,0 UV-I 0 W/m 10,3 C 12,2 C 4,8 km/h (1 Bft) 97,87 %
23.09.2016 20:50 12,1 C 88 % 1025,3 hPa 0,0 l/m 3,2 km/h (1 Bft) W-SW 244 0 min 0,000 mm 0,0 UV-I 0 W/m 10,2 C 12,1 C 4,8 km/h (1 Bft) 100,00 %
23.09.2016 20:52 11,9 C 88 % 1025,3 hPa 0,0 l/m 4,3 km/h (1 Bft) W-SW 243 0 min 0,000 mm 0,0 UV-I 0 W/m 10,0 C 11,9 C 6,4 km/h (2 Bft) 100,00 %
23.09.2016 20:54 11,8 C 88 % 1025,3 hPa 0,0 l/m 3,9 km/h (1 Bft) W-SW 242 0 min 0,000 mm 0,0 UV-I 0 W/m 9,9 C 11,8 C 4,8 km/h (1 Bft) 100,00 %
23.09.2016 20:56 11,8 C 89 % 1025,3 hPa 0,0 l/m 2,2 km/h (1 Bft) W-SW 241 0 min 0,000 mm 0,0 UV-I 0 W/m 10,0 C 11,8 C 3,2 km/h (1 Bft) 97,87 %
23.09.2016 20:58 11,7 C 89 % 1025,3 hPa 0,0 l/m 1,5 km/h (1 Bft) W-SW 241 0 min 0,000 mm 0,0 UV-I 0 W/m 9,9 C 11,7 C 3,2 km/h (1 Bft) 100,00 %
23.09.2016 21:00 11,7 C 89 % 1025,3 hPa 0,0 l/m 0,9 km/h (0 Bft) W-SW 241 0 min 0,000 mm 0,0 UV-I 0 W/m 9,9 C 11,7 C 1,6 km/h (1 Bft) 100,00 %
23.09.2016 21:02 11,7 C 89 % 1025,3 hPa 0,0 l/m 0,8 km/h (0 Bft) W-SW 241 0 min 0,000 mm 0,0 UV-I 0 W/m 9,9 C 11,7 C 1,6 km/h (1 Bft) 100,00 %
23.09.2016 21:04 11,8 C 89 % 1025,3 hPa 0,0 l/m 0,7 km/h (0 Bft) W-SW 241 0 min 0,000 mm 0,0 UV-I 0 W/m 10,0 C 11,8 C 1,6 km/h (1 Bft) 100,00 %
23.09.2016 21:06 11,9 C 89 % 1025,3 hPa 0,0 l/m 0,8 km/h (0 Bft) W-SW 241 0 min 0,000 mm 0,0 UV-I 0 W/m 10,1 C 11,9 C 1,6 km/h (1 Bft) 100,00 %
23.09.2016 21:08 12,0 C 88 % 1025,3 hPa 0,0 l/m 0,7 km/h (0 Bft) W-SW 241 0 min 0,000 mm 0,0 UV-I 0 W/m 10,1 C 12,0 C 1,6 km/h (1 Bft) 97,87 %
23.09.2016 21:10 12,1 C 88 % 1025,4 hPa 0,0 l/m 0,7 km/h (0 Bft) W-SW 241 0 min 0,000 mm 0,0 UV-I 0 W/m 10,2 C 12,1 C 1,6 km/h (1 Bft) 100,00 %
23.09.2016 21:12 12,1 C 88 % 1025,4 hPa 0,0 l/m 2,0 km/h (1 Bft) W-SW 241 0 min 0,000 mm 0,0 UV-I 0 W/m 10,2 C 12,1 C 3,2 km/h (1 Bft) 97,87 %
23.09.2016 21:14 11,9 C 88 % 1025,4 hPa 0,0 l/m 3,4 km/h (1 Bft) W-SW 241 0 min 0,000 mm 0,0 UV-I 0 W/m 10,0 C 11,9 C 4,8 km/h (1 Bft) 97,87 %
23.09.2016 21:16 11,9 C 88 % 1025,4 hPa 0,0 l/m 3,2 km/h (1 Bft) W-SW 241 0 min 0,000 mm 0,0 UV-I 0 W/m 10,0 C 11,9 C 4,8 km/h (1 Bft) 100,00 %
23.09.2016 21:18 11,9 C 88 % 1025,5 hPa 0,0 l/m 3,8 km/h (1 Bft) W-SW 241 0 min 0,000 mm 0,0 UV-I 0 W/m 10,0 C 11,9 C 4,8 km/h (1 Bft) 100,00 %
23.09.2016 21:20 11,8 C 88 % 1025,5 hPa 0,0 l/m 3,0 km/h (1 Bft) W-SW 241 0 min 0,000 mm 0,0 UV-I 0 W/m 9,9 C 11,8 C 4,8 km/h (1 Bft) 100,00 %
23.09.2016 21:22 11,7 C 88 % 1025,4 hPa 0,0 l/m 3,0 km/h (1 Bft) W-SW 241 0 min 0,000 mm 0,0 UV-I 0 W/m 9,8 C 11,7 C 4,8 km/h (1 Bft) 100,00 %
23.09.2016 21:24 11,6 C 89 % 1025,5 hPa 0,0 l/m 2,1 km/h (1 Bft) W-SW 241 0 min 0,000 mm 0,0 UV-I 0 W/m 9,8 C 11,6 C 3,2 km/h (1 Bft) 95,74 %
23.09.2016 21:26 11,5 C 89 % 1025,5 hPa 0,0 l/m 2,0 km/h (1 Bft) W-SW 241 0 min 0,000 mm 0,0 UV-I 0 W/m 9,8 C 11,5 C 3,2 km/h (1 Bft) 98,00 %
23.09.2016 21:28 11,4 C 89 % 1025,4 hPa 0,0 l/m 2,6 km/h (1 Bft) W-SW 241 0 min 0,000 mm 0,0 UV-I 0 W/m 9,7 C 11,4 C 3,2 km/h (1 Bft) 100,00 %
23.09.2016 21:30 11,4 C 89 % 1025,5 hPa 0,0 l/m 2,2 km/h (1 Bft) W-SW 241 0 min 0,000 mm 0,0 UV-I 0 W/m 9,7 C 11,4 C 3,2 km/h (1 Bft) 97,87 %
23.09.2016 21:32 11,3 C 90 % 1025,5 hPa 0,0 l/m 1,5 km/h (1 Bft) W-SW 241 0 min 0,000 mm 0,0 UV-I 0 W/m 9,7 C 11,3 C 3,2 km/h (1 Bft) 100,00 %
23.09.2016 21:34 11,3 C 90 % 1025,5 hPa 0,0 l/m 0,8 km/h (0 Bft) W-SW 241 0 min 0,000 mm 0,0 UV-I 0 W/m 9,7 C 11,3 C 1,6 km/h (1 Bft) 100,00 %
23.09.2016 21:36 11,3 C 91 % 1025,5 hPa 0,0 l/m 1,7 km/h (1 Bft) W-SW 241 0 min 0,000 mm 0,0 UV-I 0 W/m 9,9 C 11,3 C 3,2 km/h (1 Bft) 100,00 %
23.09.2016 21:38 11,4 C 90 % 1025,5 hPa 0,0 l/m 1,4 km/h (1 Bft) W-SW 241 0 min 0,000 mm 0,0 UV-I 0 W/m 9,8 C 11,4 C 3,2 km/h (1 Bft) 100,00 %
23.09.2016 21:40 11,6 C 91 % 1025,5 hPa 0,0 l/m 1,9 km/h (1 Bft) W-SW 241 0 min 0,000 mm 0,0 UV-I 0 W/m 10,2 C 11,6 C 3,2 km/h (1 Bft) 100,00 %
23.09.2016 21:42 11,7 C 91 % 1025,5 hPa 0,0 l/m 3,0 km/h (1 Bft) W-SW 241 0 min 0,000 mm 0,0 UV-I 0 W/m 10,3 C 11,7 C 4,8 km/h (1 Bft) 100,00 %
23.09.2016 21:44 11,8 C 91 % 1025,5 hPa 0,0 l/m 3,8 km/h (1 Bft) W-SW 240 0 min 0,000 mm 0,0 UV-I 0 W/m 10,4 C 11,8 C 4,8 km/h (1 Bft) 95,74 %
23.09.2016 21:46 11,9 C 90 % 1025,5 hPa 0,0 l/m 3,7 km/h (1 Bft) W-SW 240 0 min 0,000 mm 0,0 UV-I 0 W/m 10,3 C 11,9 C 4,8 km/h (1 Bft) 98,00 %
23.09.2016 21:48 12,0 C 90 % 1025,5 hPa 0,0 l/m 2,4 km/h (1 Bft) W-SW 240 0 min 0,000 mm 0,0 UV-I 0 W/m 10,4 C 12,0 C 4,8 km/h (1 Bft) 95,74 %
23.09.2016 21:50 11,9 C 90 % 1025,5 hPa 0,0 l/m 0,7 km/h (0 Bft) W-SW 240 0 min 0,000 mm 0,0 UV-I 0 W/m 10,3 C 11,9 C 1,6 km/h (1 Bft) 97,87 %
23.09.2016 21:52 11,9 C 89 % 1025,5 hPa 0,0 l/m 1,8 km/h (1 Bft) W-SW 240 0 min 0,000 mm 0,0 UV-I 0 W/m 10,1 C 11,9 C 3,2 km/h (1 Bft) 95,74 %
23.09.2016 21:54 11,8 C 89 % 1025,5 hPa 0,0 l/m 1,1 km/h (1 Bft) W-SW 240 0 min 0,000 mm 0,0 UV-I 0 W/m 10,0 C 11,8 C 3,2 km/h (1 Bft) 97,87 %
23.09.2016 21:56 11,7 C 89 % 1025,5 hPa 0,0 l/m 1,8 km/h (1 Bft) W-SW 240 0 min 0,000 mm 0,0 UV-I 0 W/m 9,9 C 11,7 C 3,2 km/h (1 Bft) 95,74 %
23.09.2016 21:58 11,6 C 90 % 1025,6 hPa 0,0 l/m 2,6 km/h (1 Bft) W-SW 240 0 min 0,000 mm 0,0 UV-I 0 W/m 10,0 C 11,6 C 3,2 km/h (1 Bft) 97,14 %
23.09.2016 22:00 11,4 C 90 % 1025,5 hPa 0,0 l/m 4,0 km/h (1 Bft) W-SW 238 0 min 0,000 mm 0,0 UV-I 0 W/m 9,8 C 11,4 C 4,8 km/h (1 Bft) 98,39 %
23.09.2016 22:02 11,5 C 91 % 1025,6 hPa 0,0 l/m 4,4 km/h (1 Bft) SW 234 0 min 0,000 mm 0,0 UV-I 0 W/m 10,1 C 11,5 C 6,4 km/h (2 Bft) 97,87 %
23.09.2016 22:04 11,6 C 91 % 1025,6 hPa 0,0 l/m 4,7 km/h (1 Bft) S-SW 192 0 min 0,000 mm 0,0 UV-I 0 W/m 10,2 C 11,6 C 6,4 km/h (2 Bft) 95,74 %
23.09.2016 22:06 11,7 C 91 % 1025,7 hPa 0,0 l/m 4,9 km/h (1 Bft) S 191 0 min 0,000 mm 0,0 UV-I 0 W/m 10,3 C 11,7 C 6,4 km/h (2 Bft) 100,00 %
23.09.2016 22:08 11,7 C 91 % 1025,6 hPa 0,0 l/m 5,1 km/h (1 Bft) S 189 0 min 0,000 mm 0,0 UV-I 0 W/m 10,3 C 11,7 C 6,4 km/h (2 Bft) 92,00 %
23.09.2016 22:10 11,8 C 91 % 1025,6 hPa 0,0 l/m 5,4 km/h (1 Bft) S 186 0 min 0,000 mm 0,0 UV-I 0 W/m 10,4 C 11,8 C 8,0 km/h (2 Bft) 95,74 %
23.09.2016 22:12 11,8 C 91 % 1025,6 hPa 0,0 l/m 5,9 km/h (2 Bft) S 187 0 min 0,000 mm 0,0 UV-I 0 W/m 10,4 C 11,8 C 9,7 km/h (2 Bft) 95,83 %
23.09.2016 22:14 11,8 C 91 % 1025,7 hPa 0,0 l/m 5,6 km/h (1 Bft) S-SW 196 0 min 0,000 mm 0,0 UV-I 0 W/m 10,4 C 11,8 C 6,4 km/h (2 Bft) 97,87 %
23.09.2016 22:16 11,8 C 91 % 1025,7 hPa 0,0 l/m 5,1 km/h (1 Bft) S-SW 194 0 min 0,000 mm 0,0 UV-I 0 W/m 10,4 C 11,8 C 6,4 km/h (2 Bft) 95,74 %
23.09.2016 22:18 11,8 C 91 % 1025,7 hPa 0,0 l/m 5,1 km/h (1 Bft) S 177 0 min 0,000 mm 0,0 UV-I 0 W/m 10,4 C 11,8 C 6,4 km/h (2 Bft) 97,14 %
23.09.2016 22:20 11,8 C 91 % 1025,7 hPa 0,0 l/m 5,0 km/h (1 Bft) S 183 0 min 0,000 mm 0,0 UV-I 0 W/m 10,4 C 11,8 C 6,4 km/h (2 Bft) 98,46 %
23.09.2016 22:22 11,8 C 91 % 1025,7 hPa 0,0 l/m 4,5 km/h (1 Bft) S 180 0 min 0,000 mm 0,0 UV-I 0 W/m 10,4 C 11,8 C 6,4 km/h (2 Bft) 93,62 %
23.09.2016 22:24 11,9 C 91 % 1025,7 hPa 0,0 l/m 4,2 km/h (1 Bft) S 178 0 min 0,000 mm 0,0 UV-I 0 W/m 10,5 C 11,9 C 6,4 km/h (2 Bft) 100,00 %
23.09.2016 22:26 11,9 C 90 % 1025,7 hPa 0,0 l/m 5,0 km/h (1 Bft) S 178 0 min 0,000 mm 0,0 UV-I 0 W/m 10,3 C 11,9 C 6,4 km/h (2 Bft) 100,00 %
23.09.2016 22:28 11,9 C 90 % 1025,8 hPa 0,0 l/m 4,4 km/h (1 Bft) S 176 0 min 0,000 mm 0,0 UV-I 0 W/m 10,3 C 11,9 C 6,4 km/h (2 Bft) 100,00 %
23.09.2016 22:30 11,9 C 90 % 1025,7 hPa 0,0 l/m 4,5 km/h (1 Bft) S 178 0 min 0,000 mm 0,0 UV-I 0 W/m 10,3 C 11,9 C 6,4 km/h (2 Bft) 98,00 %
23.09.2016 22:32 11,9 C 90 % 1025,7 hPa 0,0 l/m 3,6 km/h (1 Bft) S 178 0 min 0,000 mm 0,0 UV-I 0 W/m 10,3 C 11,9 C 4,8 km/h (1 Bft) 100,00 %
23.09.2016 22:34 11,9 C 90 % 1025,7 hPa 0,0 l/m 4,2 km/h (1 Bft) S 178 0 min 0,000 mm 0,0 UV-I 0 W/m 10,3 C 11,9 C 6,4 km/h (2 Bft) 100,00 %
23.09.2016 22:36 11,9 C 90 % 1025,8 hPa 0,0 l/m 3,8 km/h (1 Bft) S 178 0 min 0,000 mm 0,0 UV-I 0 W/m 10,3 C 11,9 C 4,8 km/h (1 Bft) 97,87 %
23.09.2016 22:38 11,9 C 91 % 1025,8 hPa 0,0 l/m 3,4 km/h (1 Bft) S 178 0 min 0,000 mm 0,0 UV-I 0 W/m 10,5 C 11,9 C 4,8 km/h (1 Bft) 100,00 %
23.09.2016 22:40 11,8 C 90 % 1025,8 hPa 0,0 l/m 3,4 km/h (1 Bft) S 178 0 min 0,000 mm 0,0 UV-I 0 W/m 10,2 C 11,8 C 4,8 km/h (1 Bft) 97,87 %
23.09.2016 22:42 11,7 C 91 % 1025,8 hPa 0,0 l/m 3,5 km/h (1 Bft) S 180 0 min 0,000 mm 0,0 UV-I 0 W/m 10,3 C 11,7 C 6,4 km/h (2 Bft) 97,87 %
23.09.2016 22:44 11,6 C 91 % 1025,8 hPa 0,0 l/m 3,6 km/h (1 Bft) S 180 0 min 0,000 mm 0,0 UV-I 0 W/m 10,2 C 11,6 C 4,8 km/h (1 Bft) 95,74 %
23.09.2016 22:46 11,6 C 91 % 1025,8 hPa 0,0 l/m 3,4 km/h (1 Bft) S 183 0 min 0,000 mm 0,0 UV-I 0 W/m 10,2 C 11,6 C 4,8 km/h (1 Bft) 97,87 %
23.09.2016 22:48 11,6 C 91 % 1025,8 hPa 0,0 l/m 3,8 km/h (1 Bft) S 183 0 min 0,000 mm 0,0 UV-I 0 W/m 10,2 C 11,6 C 4,8 km/h (1 Bft) 97,37 %
23.09.2016 22:50 11,6 C 91 % 1025,9 hPa 0,0 l/m 3,6 km/h (1 Bft) S 183 0 min 0,000 mm 0,0 UV-I 0 W/m 10,2 C 11,6 C 4,8 km/h (1 Bft) 97,87 %
23.09.2016 22:52 11,6 C 91 % 1025,9 hPa 0,0 l/m 2,8 km/h (1 Bft) S 183 0 min 0,000 mm 0,0 UV-I 0 W/m 10,2 C 11,6 C 4,8 km/h (1 Bft) 100,00 %
23.09.2016 22:54 11,6 C 91 % 1025,8 hPa 0,0 l/m 3,0 km/h (1 Bft) S 183 0 min 0,000 mm 0,0 UV-I 0 W/m 10,2 C 11,6 C 4,8 km/h (1 Bft) 100,00 %
23.09.2016 22:56 11,6 C 91 % 1025,9 hPa 0,0 l/m 3,5 km/h (1 Bft) S 184 0 min 0,000 mm 0,0 UV-I 0 W/m 10,2 C 11,6 C 4,8 km/h (1 Bft) 97,87 %
23.09.2016 22:58 11,5 C 91 % 1025,9 hPa 0,0 l/m 2,9 km/h (1 Bft) S 183 0 min 0,000 mm 0,0 UV-I 0 W/m 10,1 C 11,5 C 4,8 km/h (1 Bft) 95,74 %
23.09.2016 23:00 11,4 C 91 % 1025,9 hPa 0,0 l/m 3,0 km/h (1 Bft) S 183 0 min 0,000 mm 0,0 UV-I 0 W/m 10,0 C 11,4 C 4,8 km/h (1 Bft) 95,74 %
23.09.2016 23:02 11,4 C 92 % 1025,9 hPa 0,0 l/m 2,7 km/h (1 Bft) S 183 0 min 0,000 mm 0,0 UV-I 0 W/m 10,1 C 11,4 C 3,2 km/h (1 Bft) 100,00 %
23.09.2016 23:04 11,4 C 92 % 1025,9 hPa 0,0 l/m 2,6 km/h (1 Bft) S 183 0 min 0,000 mm 0,0 UV-I 0 W/m 10,1 C 11,4 C 3,2 km/h (1 Bft) 100,00 %
23.09.2016 23:06 11,4 C 92 % 1025,9 hPa 0,0 l/m 1,2 km/h (1 Bft) S 183 0 min 0,000 mm 0,0 UV-I 0 W/m 10,1 C 11,4 C 3,2 km/h (1 Bft) 100,00 %
23.09.2016 23:08 11,4 C 91 % 1025,9 hPa 0,0 l/m 1,4 km/h (1 Bft) S 183 0 min 0,000 mm 0,0 UV-I 0 W/m 10,0 C 11,4 C 3,2 km/h (1 Bft) 97,87 %
23.09.2016 23:10 11,4 C 91 % 1025,9 hPa 0,0 l/m 1,9 km/h (1 Bft) S 183 0 min 0,000 mm 0,0 UV-I 0 W/m 10,0 C 11,4 C 3,2 km/h (1 Bft) 97,87 %
23.09.2016 23:12 11,4 C 92 % 1025,9 hPa 0,0 l/m 2,4 km/h (1 Bft) S 183 0 min 0,000 mm 0,0 UV-I 0 W/m 10,1 C 11,4 C 3,2 km/h (1 Bft) 100,00 %
23.09.2016 23:14 11,5 C 92 % 1025,9 hPa 0,0 l/m 2,1 km/h (1 Bft) S 183 0 min 0,000 mm 0,0 UV-I 0 W/m 10,2 C 11,5 C 3,2 km/h (1 Bft) 100,00 %
23.09.2016 23:16 11,5 C 92 % 1025,9 hPa 0,0 l/m 3,1 km/h (1 Bft) S 183 0 min 0,000 mm 0,0 UV-I 0 W/m 10,2 C 11,5 C 4,8 km/h (1 Bft) 100,00 %
23.09.2016 23:18 11,6 C 92 % 1026,0 hPa 0,0 l/m 3,4 km/h (1 Bft) S 183 0 min 0,000 mm 0,0 UV-I 0 W/m 10,3 C 11,6 C 4,8 km/h (1 Bft) 100,00 %
23.09.2016 23:20 11,6 C 92 % 1026,0 hPa 0,0 l/m 3,0 km/h (1 Bft) S 183 0 min 0,000 mm 0,0 UV-I 0 W/m 10,3 C 11,6 C 4,8 km/h (1 Bft) 100,00 %
23.09.2016 23:22 11,5 C 91 % 1026,0 hPa 0,0 l/m 2,5 km/h (1 Bft) S 183 0 min 0,000 mm 0,0 UV-I 0 W/m 10,1 C 11,5 C 4,8 km/h (1 Bft) 100,00 %
23.09.2016 23:24 11,5 C 91 % 1026,0 hPa 0,0 l/m 3,2 km/h (1 Bft) S 183 0 min 0,000 mm 0,0 UV-I 0 W/m 10,1 C 11,5 C 4,8 km/h (1 Bft) 100,00 %
23.09.2016 23:26 11,5 C 91 % 1026,0 hPa 0,0 l/m 3,4 km/h (1 Bft) S 183 0 min 0,000 mm 0,0 UV-I 0 W/m 10,1 C 11,5 C 4,8 km/h (1 Bft) 97,87 %
23.09.2016 23:28 11,5 C 92 % 1026,0 hPa 0,0 l/m 3,8 km/h (1 Bft) S 183 0 min 0,000 mm 0,0 UV-I 0 W/m 10,2 C 11,5 C 4,8 km/h (1 Bft) 97,87 %
23.09.2016 23:30 11,5 C 92 % 1026,0 hPa 0,0 l/m 3,5 km/h (1 Bft) S 184 0 min 0,000 mm 0,0 UV-I 0 W/m 10,2 C 11,5 C 4,8 km/h (1 Bft) 97,87 %
23.09.2016 23:32 11,4 C 91 % 1026,0 hPa 0,0 l/m 3,6 km/h (1 Bft) S 183 0 min 0,000 mm 0,0 UV-I 0 W/m 10,0 C 11,4 C 4,8 km/h (1 Bft) 97,62 %
23.09.2016 23:34 11,4 C 91 % 1026,0 hPa 0,0 l/m 3,1 km/h (1 Bft) S 183 0 min 0,000 mm 0,0 UV-I 0 W/m 10,0 C 11,4 C 4,8 km/h (1 Bft) 100,00 %
23.09.2016 23:36 11,3 C 91 % 1026,0 hPa 0,0 l/m 3,9 km/h (1 Bft) S 183 0 min 0,000 mm 0,0 UV-I 0 W/m 9,9 C 11,3 C 6,4 km/h (2 Bft) 100,00 %
23.09.2016 23:38 11,2 C 91 % 1025,9 hPa 0,0 l/m 2,2 km/h (1 Bft) S 183 0 min 0,000 mm 0,0 UV-I 0 W/m 9,8 C 11,2 C 4,8 km/h (1 Bft) 100,00 %
23.09.2016 23:40 11,2 C 92 % 1025,9 hPa 0,0 l/m 1,1 km/h (1 Bft) S 183 0 min 0,000 mm 0,0 UV-I 0 W/m 9,9 C 11,2 C 3,2 km/h (1 Bft) 100,00 %
23.09.2016 23:42 11,2 C 92 % 1025,9 hPa 0,0 l/m 1,7 km/h (1 Bft) S 183 0 min 0,000 mm 0,0 UV-I 0 W/m 9,9 C 11,2 C 3,2 km/h (1 Bft) 100,00 %
23.09.2016 23:44 11,2 C 92 % 1025,9 hPa 0,0 l/m 2,5 km/h (1 Bft) S 183 0 min 0,000 mm 0,0 UV-I 0 W/m 9,9 C 11,2 C 3,2 km/h (1 Bft) 100,00 %
23.09.2016 23:46 11,3 C 92 % 1025,9 hPa 0,0 l/m 1,0 km/h (0 Bft) S 183 0 min 0,000 mm 0,0 UV-I 0 W/m 10,0 C 11,3 C 3,2 km/h (1 Bft) 100,00 %
23.09.2016 23:49 11,3 C 92 % 1025,9 hPa 0,0 l/m 1,1 km/h (1 Bft) S 183 0 min 0,000 mm 0,0 UV-I 0 W/m 10,0 C 11,3 C 3,2 km/h (1 Bft) 100,00 %
23.09.2016 23:50 11,2 C 92 % 1025,9 hPa 0,0 l/m 0,0 km/h (0 Bft) S 183 0 min 0,000 mm 0,0 UV-I 0 W/m 9,9 C 11,2 C 0,0 km/h (0 Bft) 100,00 %
23.09.2016 23:52 11,2 C 92 % 1025,9 hPa 0,0 l/m 0,0 km/h (0 Bft) S 183 0 min 0,000 mm 0,0 UV-I 0 W/m 9,9 C 11,2 C 0,0 km/h (0 Bft) 97,87 %
23.09.2016 23:54 11,2 C 92 % 1025,9 hPa 0,0 l/m 1,2 km/h (1 Bft) S 183 0 min 0,000 mm 0,0 UV-I 0 W/m 9,9 C 11,2 C 3,2 km/h (1 Bft) 96,00 %
23.09.2016 23:56 11,2 C 92 % 1025,9 hPa 0,0 l/m 1,2 km/h (1 Bft) S 183 0 min 0,000 mm 0,0 UV-I 0 W/m 9,9 C 11,2 C 1,6 km/h (1 Bft) 97,87 %
23.09.2016 23:58 11,1 C 92 % 1025,9 hPa 0,0 l/m 0,8 km/h (0 Bft) S 183 0 min 0,000 mm 0,0 UV-I 0 W/m 9,8 C 11,1 C 1,6 km/h (1 Bft) 97,87 %
_ Min-Zeit 06:40 15:10 00:04 - 01:04 - - - - - - 05:56 05:56 01:18 08:44
Minimum _ 5,4 C 50 % 1021,9 hPa - 0,0 km/h (0 Bft) - - - - - - 4,9 C 5,5 C 0,0 km/h (0 Bft) 91,49 %
_ Max-Zeit 15:28 06:50 23:18 07:36 15:00 - - 07:02 15:02 12:34 12:50 17:56 16:26 13:36 00:00
Maximum _ 19,3 C 97 % 1026,0 hPa 0,2 l/m 7,5 km/h
SW (2 Bft)
- - 2 min 0,356 mm 3,4 UV-I 669 W/m 12,8 C 19,3 C 14,5 km/h
NO (3 Bft)
100,00 %
Durchschnitt _ 11,9 C 83 % 1024,1 hPa #0,2 l/m 1,8 km/h (1 Bft) S - #9:04 h #2,413 mm 2,1 UV-I 354 W/m 8,8 C 11,9 C 3,4 km/h (1 Bft) 98,54 %